Time,TemperatureF,DewpointF,PressureIn,WindDirection,WindDirectionDegrees,WindSpeedMPH,WindSpeedGustMPH,Humidity,HourlyPrecipIn,Conditions,Clouds,dailyrainin,SoftwareType,DateUTC
2013-06-13 00:01:00,77.3,73.8,29.84,SW,236,0.0,1.0,89,0.00,,,0.00,Wunderground v.1.15,2013-06-13 04:01:00,
2013-06-13 00:02:00,77.3,73.8,29.84,SW,235,1.0,1.0,89,0.00,,,0.00,Wunderground v.1.15,2013-06-13 04:02:00,
2013-06-13 00:06:00,77.2,73.7,29.84,SW,224,0.0,1.0,89,0.00,,,0.00,Wunderground v.1.15,2013-06-13 04:06:00,
2013-06-13 00:07:00,77.2,73.7,29.84,SW,224,0.0,1.0,89,0.00,,,0.00,Wunderground v.1.15,2013-06-13 04:07:00,
2013-06-13 00:09:00,77.2,73.7,29.84,SW,224,0.0,1.0,89,0.00,,,0.00,Wunderground v.1.15,2013-06-13 04:09:00,
2013-06-13 00:12:00,77.1,73.6,29.84,SW,226,0.0,1.0,89,0.00,,,0.00,Wunderground v.1.15,2013-06-13 04:12:00,
2013-06-13 00:13:00,77.1,73.6,29.84,SW,232,1.0,1.0,89,0.00,,,0.00,Wunderground v.1.15,2013-06-13 04:13:00,
2013-06-13 00:15:00,77.1,73.9,29.84,SW,231,0.0,1.0,90,0.00,,,0.00,Wunderground v.1.15,2013-06-13 04:15:00,
2013-06-13 00:16:00,77.1,73.9,29.84,SW,231,0.0,1.0,90,0.00,,,0.00,Wunderground v.1.15,2013-06-13 04:16:00,
2013-06-13 00:17:00,77.1,73.9,29.84,SW,231,0.0,1.0,90,0.00,,,0.00,Wunderground v.1.15,2013-06-13 04:17:00,
2013-06-13 00:21:00,77.1,73.9,29.84,SW,231,0.0,0.0,90,0.00,,,0.00,Wunderground v.1.15,2013-06-13 04:21:00,
2013-06-13 00:23:00,77.0,73.8,29.84,SW,231,0.0,0.0,90,0.00,,,0.00,Wunderground v.1.15,2013-06-13 04:23:00,
2013-06-13 00:24:00,77.0,73.8,29.84,WSW,249,0.0,0.0,90,0.00,,,0.00,Wunderground v.1.15,2013-06-13 04:24:00,
2013-06-13 00:25:00,77.0,73.8,29.84,WSW,238,1.0,1.0,90,0.00,,,0.00,Wunderground v.1.15,2013-06-13 04:25:00,
2013-06-13 00:28:00,77.0,73.8,29.84,WSW,238,0.0,1.0,90,0.00,,,0.00,Wunderground v.1.15,2013-06-13 04:28:00,
2013-06-13 00:31:00,77.0,73.8,29.84,WSW,238,1.0,1.0,90,0.00,,,0.00,Wunderground v.1.15,2013-06-13 04:31:00,
2013-06-13 00:32:00,77.0,73.8,29.84,WSW,237,0.0,1.0,90,0.00,,,0.00,Wunderground v.1.15,2013-06-13 04:32:00,
2013-06-13 00:35:00,76.9,73.7,29.84,WSW,238,0.0,1.0,90,0.00,,,0.00,Wunderground v.1.15,2013-06-13 04:35:00,
2013-06-13 00:37:00,76.9,73.7,29.84,WSW,238,0.0,1.0,90,0.00,,,0.00,Wunderground v.1.15,2013-06-13 04:37:00,
2013-06-13 00:38:00,76.8,73.6,29.84,WSW,238,0.0,1.0,90,0.00,,,0.00,Wunderground v.1.15,2013-06-13 04:38:00,
2013-06-13 00:39:00,76.8,73.6,29.84,WSW,238,0.0,1.0,90,0.00,,,0.00,Wunderground v.1.15,2013-06-13 04:39:00,
2013-06-13 00:42:00,76.5,73.3,29.84,WSW,238,0.0,0.0,90,0.00,,,0.00,Wunderground v.1.15,2013-06-13 04:42:00,
2013-06-13 00:43:00,76.5,73.3,29.84,West,260,0.0,0.0,90,0.00,,,0.00,Wunderground v.1.15,2013-06-13 04:43:00,
2013-06-13 00:48:00,76.4,73.6,29.84,SW,233,0.0,1.0,91,0.00,,,0.00,Wunderground v.1.15,2013-06-13 04:48:00,
2013-06-13 00:49:00,76.3,73.5,29.84,SW,233,1.0,1.0,91,0.00,,,0.00,Wunderground v.1.15,2013-06-13 04:49:00,
2013-06-13 00:53:00,76.3,73.8,29.84,SW,233,0.0,1.0,92,0.00,,,0.00,Wunderground v.1.15,2013-06-13 04:53:00,
2013-06-13 00:54:00,76.3,73.8,29.84,SW,233,1.0,1.0,92,0.00,,,0.00,Wunderground v.1.15,2013-06-13 04:54:00,
2013-06-13 00:55:00,76.3,73.8,29.83,WSW,240,2.0,2.0,92,0.00,,,0.00,Wunderground v.1.15,2013-06-13 04:55:00,
2013-06-13 00:57:00,76.4,73.9,29.83,West,266,1.0,2.0,92,0.00,,,0.00,Wunderground v.1.15,2013-06-13 04:57:00,
2013-06-13 01:00:00,76.4,73.6,29.83,WSW,243,0.0,1.0,91,0.00,,,0.00,Wunderground v.1.15,2013-06-13 05:00:00,
2013-06-13 01:01:00,76.4,73.6,29.83,WSW,243,0.0,1.0,91,0.00,,,0.00,Wunderground v.1.15,2013-06-13 05:01:00,
2013-06-13 01:02:00,76.4,73.6,29.83,West,260,1.0,1.0,91,0.00,,,0.00,Wunderground v.1.15,2013-06-13 05:02:00,
2013-06-13 01:03:00,76.4,73.6,29.83,SW,222,0.0,1.0,91,0.00,,,0.00,Wunderground v.1.15,2013-06-13 05:03:00,
2013-06-13 01:05:00,76.4,73.6,29.83,SW,235,2.0,2.0,91,0.00,,,0.00,Wunderground v.1.15,2013-06-13 05:05:00,
2013-06-13 01:06:00,76.4,73.6,29.83,SW,236,0.0,2.0,91,0.00,,,0.00,Wunderground v.1.15,2013-06-13 05:06:00,
2013-06-13 01:07:00,76.5,73.7,29.83,WSW,240,1.0,2.0,91,0.00,,,0.00,Wunderground v.1.15,2013-06-13 05:07:00,
2013-06-13 01:09:00,76.5,73.7,29.83,WSW,238,1.0,2.0,91,0.00,,,0.00,Wunderground v.1.15,2013-06-13 05:09:00,
2013-06-13 01:12:00,76.5,73.7,29.83,WSW,243,0.0,1.0,91,0.00,,,0.00,Wunderground v.1.15,2013-06-13 05:12:00,
2013-06-13 01:14:00,76.5,73.7,29.83,WSW,243,0.0,1.0,91,0.00,,,0.00,Wunderground v.1.15,2013-06-13 05:14:00,
2013-06-13 01:15:00,76.5,73.7,29.83,WSW,243,0.0,1.0,91,0.00,,,0.00,Wunderground v.1.15,2013-06-13 05:15:00,
2013-06-13 01:16:00,76.5,73.7,29.83,WSW,243,0.0,1.0,91,0.00,,,0.00,Wunderground v.1.15,2013-06-13 05:16:00,
2013-06-13 01:17:00,76.4,73.6,29.83,WSW,243,0.0,1.0,91,0.00,,,0.00,Wunderground v.1.15,2013-06-13 05:17:00,
2013-06-13 01:20:00,76.3,73.5,29.83,WSW,243,0.0,0.0,91,0.00,,,0.00,Wunderground v.1.15,2013-06-13 05:20:00,
2013-06-13 01:23:00,76.1,73.3,29.83,WSW,243,0.0,0.0,91,0.00,,,0.00,Wunderground v.1.15,2013-06-13 05:23:00,
2013-06-13 01:24:00,76.0,73.2,29.83,WSW,243,0.0,0.0,91,0.00,,,0.00,Wunderground v.1.15,2013-06-13 05:24:00,
2013-06-13 01:25:00,76.0,73.2,29.83,WSW,242,0.0,0.0,91,0.00,,,0.00,Wunderground v.1.15,2013-06-13 05:25:00,
2013-06-13 01:27:00,75.8,73.3,29.83,WSW,241,0.0,0.0,92,0.00,,,0.00,Wunderground v.1.15,2013-06-13 05:27:00,
2013-06-13 01:28:00,75.8,73.3,29.82,WSW,241,0.0,0.0,92,0.00,,,0.00,Wunderground v.1.15,2013-06-13 05:28:00,
2013-06-13 01:29:00,75.7,73.2,29.82,WSW,242,0.0,0.0,92,0.00,,,0.00,Wunderground v.1.15,2013-06-13 05:29:00,
2013-06-13 01:30:00,75.7,73.2,29.82,SW,221,0.0,0.0,92,0.00,,,0.00,Wunderground v.1.15,2013-06-13 05:30:00,
2013-06-13 01:33:00,75.7,73.5,29.82,SW,235,0.0,0.0,93,0.00,,,0.00,Wunderground v.1.15,2013-06-13 05:33:00,
2013-06-13 01:34:00,75.7,73.5,29.82,SW,235,0.0,0.0,93,0.00,,,0.00,Wunderground v.1.15,2013-06-13 05:34:00,
2013-06-13 01:35:00,75.7,73.5,29.82,SW,235,0.0,0.0,93,0.00,,,0.00,Wunderground v.1.15,2013-06-13 05:35:00,
2013-06-13 01:36:00,75.8,73.6,29.82,SW,235,0.0,0.0,93,0.00,,,0.00,Wunderground v.1.15,2013-06-13 05:36:00,
2013-06-13 01:39:00,75.7,73.5,29.82,SW,235,0.0,0.0,93,0.00,,,0.00,Wunderground v.1.15,2013-06-13 05:39:00,
2013-06-13 01:41:00,75.6,73.1,29.82,SW,235,0.0,0.0,92,0.00,,,0.00,Wunderground v.1.15,2013-06-13 05:41:00,
2013-06-13 01:45:00,75.3,73.1,29.82,SW,235,0.0,0.0,93,0.00,,,0.00,Wunderground v.1.15,2013-06-13 05:45:00,
2013-06-13 01:46:00,75.3,73.1,29.82,SW,235,0.0,0.0,93,0.00,,,0.00,Wunderground v.1.15,2013-06-13 05:46:00,
2013-06-13 01:47:00,75.2,73.0,29.82,SW,235,0.0,0.0,93,0.00,,,0.00,Wunderground v.1.15,2013-06-13 05:47:00,
2013-06-13 01:51:00,75.0,72.8,29.82,SW,235,0.0,0.0,93,0.00,,,0.00,Wunderground v.1.15,2013-06-13 05:51:00,
2013-06-13 01:52:00,74.9,72.7,29.82,SW,235,0.0,0.0,93,0.00,,,0.00,Wunderground v.1.15,2013-06-13 05:52:00,
2013-06-13 01:54:00,74.8,72.6,29.82,SW,235,0.0,0.0,93,0.00,,,0.00,Wunderground v.1.15,2013-06-13 05:54:00,
2013-06-13 01:56:00,74.7,72.5,29.82,SW,235,0.0,0.0,93,0.00,,,0.00,Wunderground v.1.15,2013-06-13 05:56:00,
2013-06-13 01:57:00,74.6,72.4,29.82,SW,235,0.0,0.0,93,0.00,,,0.00,Wunderground v.1.15,2013-06-13 05:57:00,
2013-06-13 02:00:00,74.5,72.7,29.82,SW,235,0.0,0.0,94,0.00,,,0.00,Wunderground v.1.15,2013-06-13 06:00:00,
2013-06-13 02:01:00,74.5,72.7,29.82,SW,235,0.0,0.0,94,0.00,,,0.00,Wunderground v.1.15,2013-06-13 06:01:00,
2013-06-13 02:02:00,74.4,72.6,29.82,SW,235,0.0,0.0,94,0.00,,,0.00,Wunderground v.1.15,2013-06-13 06:02:00,
2013-06-13 02:05:00,74.3,72.5,29.82,SW,235,0.0,0.0,94,0.00,,,0.00,Wunderground v.1.15,2013-06-13 06:05:00,
2013-06-13 02:06:00,74.3,72.5,29.82,SW,235,0.0,0.0,94,0.00,,,0.00,Wunderground v.1.15,2013-06-13 06:06:00,
2013-06-13 02:07:00,74.3,72.5,29.82,SW,235,0.0,0.0,94,0.00,,,0.00,Wunderground v.1.15,2013-06-13 06:07:00,
2013-06-13 02:10:00,74.2,72.4,29.82,SW,235,0.0,0.0,94,0.00,,,0.00,Wunderground v.1.15,2013-06-13 06:10:00,
2013-06-13 02:11:00,74.2,72.7,29.82,SW,235,0.0,0.0,95,0.00,,,0.00,Wunderground v.1.15,2013-06-13 06:11:00,
2013-06-13 02:12:00,74.2,72.7,29.82,SW,235,0.0,0.0,95,0.00,,,0.00,Wunderground v.1.15,2013-06-13 06:12:00,
2013-06-13 02:15:00,74.1,72.6,29.82,SW,235,0.0,0.0,95,0.00,,,0.00,Wunderground v.1.15,2013-06-13 06:15:00,
2013-06-13 02:16:00,74.1,72.6,29.82,SW,235,0.0,0.0,95,0.00,,,0.00,Wunderground v.1.15,2013-06-13 06:16:00,
2013-06-13 02:17:00,74.1,72.6,29.82,SW,235,0.0,0.0,95,0.00,,,0.00,Wunderground v.1.15,2013-06-13 06:17:00,
2013-06-13 02:20:00,74.0,72.5,29.82,SW,235,0.0,0.0,95,0.00,,,0.00,Wunderground v.1.15,2013-06-13 06:20:00,
2013-06-13 02:22:00,74.0,72.5,29.82,SW,235,0.0,0.0,95,0.00,,,0.00,Wunderground v.1.15,2013-06-13 06:22:00,
2013-06-13 02:23:00,74.0,72.5,29.82,SW,235,0.0,0.0,95,0.00,,,0.00,Wunderground v.1.15,2013-06-13 06:23:00,
2013-06-13 02:25:00,74.0,72.5,29.83,SW,235,0.0,0.0,95,0.00,,,0.00,Wunderground v.1.15,2013-06-13 06:25:00,
2013-06-13 02:27:00,73.9,72.4,29.83,SW,235,0.0,0.0,95,0.00,,,0.00,Wunderground v.1.15,2013-06-13 06:27:00,
2013-06-13 02:28:00,73.9,72.4,29.83,SW,235,0.0,0.0,95,0.00,,,0.00,Wunderground v.1.15,2013-06-13 06:28:00,
2013-06-13 02:30:00,73.8,72.3,29.83,SW,235,0.0,0.0,95,0.00,,,0.00,Wunderground v.1.15,2013-06-13 06:30:00,
2013-06-13 02:32:00,73.8,72.6,29.83,SW,235,0.0,0.0,96,0.00,,,0.00,Wunderground v.1.15,2013-06-13 06:32:00,
2013-06-13 02:33:00,73.8,72.6,29.83,SW,235,0.0,0.0,96,0.00,,,0.00,Wunderground v.1.15,2013-06-13 06:33:00,
2013-06-13 02:35:00,73.8,72.6,29.83,SW,235,0.0,0.0,96,0.00,,,0.00,Wunderground v.1.15,2013-06-13 06:35:00,
2013-06-13 02:37:00,73.8,72.6,29.83,SW,235,0.0,0.0,96,0.00,,,0.00,Wunderground v.1.15,2013-06-13 06:37:00,
2013-06-13 02:38:00,73.8,72.6,29.83,SW,235,0.0,0.0,96,0.00,,,0.00,Wunderground v.1.15,2013-06-13 06:38:00,
2013-06-13 02:41:00,73.7,72.5,29.83,SW,235,0.0,0.0,96,0.00,,,0.00,Wunderground v.1.15,2013-06-13 06:41:00,
2013-06-13 02:42:00,73.7,72.5,29.83,SW,235,0.0,0.0,96,0.00,,,0.00,Wunderground v.1.15,2013-06-13 06:42:00,
2013-06-13 02:43:00,73.7,72.5,29.83,SW,235,0.0,0.0,96,0.00,,,0.00,Wunderground v.1.15,2013-06-13 06:43:00,
2013-06-13 02:46:00,73.6,72.4,29.82,SW,235,0.0,0.0,96,0.00,,,0.00,Wunderground v.1.15,2013-06-13 06:46:00,
2013-06-13 02:47:00,73.6,72.4,29.83,SW,235,0.0,0.0,96,0.00,,,0.00,Wunderground v.1.15,2013-06-13 06:47:00,
2013-06-13 02:48:00,73.7,72.5,29.83,SW,235,0.0,0.0,96,0.00,,,0.00,Wunderground v.1.15,2013-06-13 06:48:00,
2013-06-13 02:51:00,73.6,72.4,29.83,SW,235,0.0,0.0,96,0.00,,,0.00,Wunderground v.1.15,2013-06-13 06:51:00,
2013-06-13 02:52:00,73.6,72.4,29.83,SW,235,0.0,0.0,96,0.00,,,0.00,Wunderground v.1.15,2013-06-13 06:52:00,
2013-06-13 02:53:00,73.6,72.4,29.83,SW,235,0.0,0.0,96,0.00,,,0.00,Wunderground v.1.15,2013-06-13 06:53:00,
2013-06-13 02:54:00,73.6,72.4,29.83,SW,235,0.0,0.0,96,0.00,,,0.00,Wunderground v.1.15,2013-06-13 06:54:00,
2013-06-13 02:56:00,73.6,72.4,29.83,SW,235,0.0,0.0,96,0.00,,,0.00,Wunderground v.1.15,2013-06-13 06:56:00,
2013-06-13 02:57:00,73.6,72.4,29.82,SW,235,0.0,0.0,96,0.00,,,0.00,Wunderground v.1.15,2013-06-13 06:57:00,
2013-06-13 02:58:00,73.6,72.4,29.83,SW,235,0.0,0.0,96,0.00,,,0.00,Wunderground v.1.15,2013-06-13 06:58:00,
2013-06-13 02:59:00,73.6,72.4,29.83,SW,235,0.0,0.0,96,0.00,,,0.00,Wunderground v.1.15,2013-06-13 06:59:00,
2013-06-13 03:01:00,73.6,72.4,29.83,SW,235,0.0,0.0,96,0.00,,,0.00,Wunderground v.1.15,2013-06-13 07:01:00,
2013-06-13 03:03:00,73.6,72.4,29.83,SW,235,0.0,0.0,96,0.00,,,0.00,Wunderground v.1.15,2013-06-13 07:03:00,
2013-06-13 03:04:00,73.6,72.4,29.83,SW,235,0.0,0.0,96,0.00,,,0.00,Wunderground v.1.15,2013-06-13 07:04:00,
2013-06-13 03:06:00,73.5,72.3,29.83,SW,235,0.0,0.0,96,0.00,,,0.00,Wunderground v.1.15,2013-06-13 07:06:00,
2013-06-13 03:08:00,73.5,72.6,29.83,SW,235,0.0,0.0,97,0.00,,,0.00,Wunderground v.1.15,2013-06-13 07:08:00,
2013-06-13 03:09:00,73.6,72.7,29.83,SW,235,0.0,0.0,97,0.00,,,0.00,Wunderground v.1.15,2013-06-13 07:09:00,
2013-06-13 03:11:00,73.5,72.6,29.83,SW,235,0.0,0.0,97,0.00,,,0.00,Wunderground v.1.15,2013-06-13 07:11:00,
2013-06-13 03:12:00,73.5,72.6,29.82,SW,235,0.0,0.0,97,0.00,,,0.00,Wunderground v.1.15,2013-06-13 07:12:00,
2013-06-13 03:14:00,73.6,72.7,29.82,SW,235,0.0,0.0,97,0.00,,,0.00,Wunderground v.1.15,2013-06-13 07:14:00,
2013-06-13 03:16:00,73.6,72.7,29.83,SW,235,0.0,0.0,97,0.00,,,0.00,Wunderground v.1.15,2013-06-13 07:16:00,
2013-06-13 03:17:00,73.6,72.7,29.83,SW,235,0.0,0.0,97,0.00,,,0.00,Wunderground v.1.15,2013-06-13 07:17:00,
2013-06-13 03:19:00,73.5,72.6,29.82,SW,235,0.0,0.0,97,0.00,,,0.00,Wunderground v.1.15,2013-06-13 07:19:00,
2013-06-13 03:20:00,73.5,72.6,29.83,SW,235,0.0,0.0,97,0.00,,,0.00,Wunderground v.1.15,2013-06-13 07:20:00,
2013-06-13 03:22:00,73.5,72.6,29.83,SW,235,0.0,0.0,97,0.00,,,0.00,Wunderground v.1.15,2013-06-13 07:22:00,
2013-06-13 03:25:00,73.5,72.6,29.82,SW,235,0.0,0.0,97,0.00,,,0.00,Wunderground v.1.15,2013-06-13 07:25:00,
2013-06-13 03:27:00,73.4,72.5,29.82,SW,235,0.0,0.0,97,0.00,,,0.00,Wunderground v.1.15,2013-06-13 07:27:00,
2013-06-13 03:30:00,73.4,72.5,29.82,SW,235,0.0,0.0,97,0.00,,,0.00,Wunderground v.1.15,2013-06-13 07:30:00,
2013-06-13 03:31:00,73.4,72.5,29.82,SW,235,0.0,0.0,97,0.00,,,0.00,Wunderground v.1.15,2013-06-13 07:31:00,
2013-06-13 03:32:00,73.4,72.5,29.82,SW,235,0.0,0.0,97,0.00,,,0.00,Wunderground v.1.15,2013-06-13 07:32:00,
2013-06-13 03:33:00,73.4,72.5,29.82,SW,235,0.0,0.0,97,0.00,,,0.00,Wunderground v.1.15,2013-06-13 07:33:00,
2013-06-13 03:35:00,73.4,72.5,29.82,SW,235,0.0,0.0,97,0.00,,,0.00,Wunderground v.1.15,2013-06-13 07:35:00,
2013-06-13 03:36:00,73.4,72.5,29.82,SW,235,0.0,0.0,97,0.00,,,0.00,Wunderground v.1.15,2013-06-13 07:36:00,
2013-06-13 03:37:00,73.4,72.5,29.82,SW,235,0.0,0.0,97,0.00,,,0.00,Wunderground v.1.15,2013-06-13 07:37:00,
2013-06-13 03:39:00,73.4,72.5,29.82,SW,235,0.0,0.0,97,0.00,,,0.00,Wunderground v.1.15,2013-06-13 07:39:00,
2013-06-13 03:41:00,73.4,72.5,29.82,SW,235,0.0,0.0,97,0.00,,,0.00,Wunderground v.1.15,2013-06-13 07:41:00,
2013-06-13 03:42:00,73.4,72.5,29.82,SW,235,0.0,0.0,97,0.00,,,0.00,Wunderground v.1.15,2013-06-13 07:42:00,
2013-06-13 03:44:00,73.5,72.6,29.82,SW,235,0.0,0.0,97,0.00,,,0.00,Wunderground v.1.15,2013-06-13 07:44:00,
2013-06-13 03:46:00,73.5,72.6,29.82,SW,235,0.0,0.0,97,0.00,,,0.00,Wunderground v.1.15,2013-06-13 07:46:00,
2013-06-13 03:47:00,73.6,73.0,29.82,SW,235,0.0,0.0,98,0.00,,,0.00,Wunderground v.1.15,2013-06-13 07:47:00,
2013-06-13 03:50:00,73.6,73.0,29.82,SSW,207,0.0,0.0,98,0.00,,,0.00,Wunderground v.1.15,2013-06-13 07:50:00,
2013-06-13 03:51:00,73.7,73.1,29.82,SSW,207,0.0,0.0,98,0.00,,,0.00,Wunderground v.1.15,2013-06-13 07:51:00,
2013-06-13 03:53:00,73.8,73.2,29.82,SSW,207,0.0,0.0,98,0.00,,,0.00,Wunderground v.1.15,2013-06-13 07:53:00,
2013-06-13 03:55:00,73.8,73.2,29.81,SSW,207,0.0,0.0,98,0.00,,,0.00,Wunderground v.1.15,2013-06-13 07:55:00,
2013-06-13 03:56:00,73.8,73.2,29.81,SSW,207,0.0,0.0,98,0.00,,,0.00,Wunderground v.1.15,2013-06-13 07:56:00,
2013-06-13 03:58:00,73.8,72.9,29.81,SSW,207,0.0,0.0,97,0.00,,,0.00,Wunderground v.1.15,2013-06-13 07:58:00,
2013-06-13 04:00:00,73.8,72.9,29.81,SSW,207,0.0,0.0,97,0.00,,,0.00,Wunderground v.1.15,2013-06-13 08:00:00,
2013-06-13 04:01:00,73.7,72.8,29.81,SSW,207,0.0,0.0,97,0.00,,,0.00,Wunderground v.1.15,2013-06-13 08:01:00,
2013-06-13 04:02:00,73.7,72.8,29.81,SSW,207,0.0,0.0,97,0.00,,,0.00,Wunderground v.1.15,2013-06-13 08:02:00,
2013-06-13 04:03:00,73.7,72.8,29.81,SSW,207,0.0,0.0,97,0.00,,,0.00,Wunderground v.1.15,2013-06-13 08:03:00,
2013-06-13 04:05:00,73.7,72.8,29.81,WSW,253,0.0,0.0,97,0.00,,,0.00,Wunderground v.1.15,2013-06-13 08:05:00,
2013-06-13 04:06:00,73.7,72.8,29.81,WSW,253,0.0,0.0,97,0.00,,,0.00,Wunderground v.1.15,2013-06-13 08:06:00,
2013-06-13 04:07:00,73.7,72.8,29.81,WSW,253,0.0,0.0,97,0.00,,,0.00,Wunderground v.1.15,2013-06-13 08:07:00,
2013-06-13 04:08:00,73.7,72.8,29.81,WSW,253,0.0,0.0,97,0.00,,,0.00,Wunderground v.1.15,2013-06-13 08:08:00,
2013-06-13 04:10:00,73.6,72.7,29.81,WSW,254,0.0,0.0,97,0.00,,,0.00,Wunderground v.1.15,2013-06-13 08:10:00,
2013-06-13 04:11:00,73.6,72.7,29.80,WSW,253,0.0,0.0,97,0.00,,,0.00,Wunderground v.1.15,2013-06-13 08:11:00,
2013-06-13 04:12:00,73.6,72.7,29.80,WSW,253,0.0,0.0,97,0.00,,,0.00,Wunderground v.1.15,2013-06-13 08:12:00,
2013-06-13 04:14:00,73.6,72.7,29.80,WSW,252,0.0,0.0,97,0.00,,,0.00,Wunderground v.1.15,2013-06-13 08:14:00,
2013-06-13 04:15:00,73.7,72.8,29.80,WSW,251,0.0,0.0,97,0.00,,,0.00,Wunderground v.1.15,2013-06-13 08:15:00,
2013-06-13 04:17:00,73.7,72.8,29.80,WSW,252,0.0,0.0,97,0.00,,,0.00,Wunderground v.1.15,2013-06-13 08:17:00,
2013-06-13 04:18:00,73.7,72.8,29.80,WSW,252,0.0,0.0,97,0.00,,,0.00,Wunderground v.1.15,2013-06-13 08:18:00,
2013-06-13 04:19:00,73.7,72.8,29.80,WSW,252,0.0,0.0,97,0.00,,,0.00,Wunderground v.1.15,2013-06-13 08:19:00,
2013-06-13 04:20:00,73.7,72.8,29.80,WSW,252,0.0,0.0,97,0.00,,,0.00,Wunderground v.1.15,2013-06-13 08:20:00,
2013-06-13 04:22:00,73.7,72.8,29.80,WSW,252,0.0,0.0,97,0.00,,,0.00,Wunderground v.1.15,2013-06-13 08:22:00,
2013-06-13 04:23:00,73.6,72.7,29.80,WSW,252,0.0,0.0,97,0.00,,,0.00,Wunderground v.1.15,2013-06-13 08:23:00,
2013-06-13 04:24:00,73.6,72.7,29.80,WSW,252,0.0,0.0,97,0.00,,,0.00,Wunderground v.1.15,2013-06-13 08:24:00,
2013-06-13 04:25:00,73.5,72.6,29.80,WSW,254,0.0,0.0,97,0.00,,,0.00,Wunderground v.1.15,2013-06-13 08:25:00,
2013-06-13 04:27:00,73.4,72.5,29.80,WSW,252,0.0,0.0,97,0.00,,,0.00,Wunderground v.1.15,2013-06-13 08:27:00,
2013-06-13 04:28:00,73.4,72.5,29.80,WSW,252,0.0,0.0,97,0.00,,,0.00,Wunderground v.1.15,2013-06-13 08:28:00,
2013-06-13 04:29:00,73.4,72.5,29.80,WSW,252,0.0,0.0,97,0.00,,,0.00,Wunderground v.1.15,2013-06-13 08:29:00,
2013-06-13 04:30:00,73.4,72.5,29.80,WSW,252,0.0,0.0,97,0.00,,,0.00,Wunderground v.1.15,2013-06-13 08:30:00,
2013-06-13 04:33:00,73.3,72.4,29.79,WSW,252,0.0,0.0,97,0.00,,,0.00,Wunderground v.1.15,2013-06-13 08:33:00,
2013-06-13 04:34:00,73.2,72.3,29.79,WSW,252,0.0,0.0,97,0.00,,,0.00,Wunderground v.1.15,2013-06-13 08:34:00,
2013-06-13 04:36:00,73.2,72.3,29.79,WSW,252,0.0,0.0,97,0.00,,,0.00,Wunderground v.1.15,2013-06-13 08:36:00,
2013-06-13 04:38:00,73.1,72.2,29.80,WSW,252,0.0,0.0,97,0.00,,,0.00,Wunderground v.1.15,2013-06-13 08:38:00,
2013-06-13 04:39:00,73.1,72.2,29.79,WSW,252,0.0,0.0,97,0.00,,,0.00,Wunderground v.1.15,2013-06-13 08:39:00,
2013-06-13 04:41:00,73.0,72.1,29.79,WSW,252,0.0,0.0,97,0.00,,,0.00,Wunderground v.1.15,2013-06-13 08:41:00,
2013-06-13 04:43:00,72.9,72.0,29.79,WSW,252,0.0,0.0,97,0.00,,,0.00,Wunderground v.1.15,2013-06-13 08:43:00,
2013-06-13 04:44:00,72.9,72.0,29.79,WSW,252,0.0,0.0,97,0.00,,,0.00,Wunderground v.1.15,2013-06-13 08:44:00,
2013-06-13 04:46:00,72.9,72.0,29.79,WSW,252,0.0,0.0,97,0.00,,,0.00,Wunderground v.1.15,2013-06-13 08:46:00,
2013-06-13 04:47:00,72.8,71.9,29.79,WSW,252,0.0,0.0,97,0.00,,,0.00,Wunderground v.1.15,2013-06-13 08:47:00,
2013-06-13 04:48:00,72.8,71.9,29.79,WSW,252,0.0,0.0,97,0.00,,,0.00,Wunderground v.1.15,2013-06-13 08:48:00,
2013-06-13 04:49:00,72.8,71.9,29.79,WSW,252,0.0,0.0,97,0.00,,,0.00,Wunderground v.1.15,2013-06-13 08:49:00,
2013-06-13 04:51:00,72.8,71.9,29.79,WSW,252,0.0,0.0,97,0.00,,,0.00,Wunderground v.1.15,2013-06-13 08:51:00,
2013-06-13 04:52:00,72.8,71.9,29.79,WSW,252,0.0,0.0,97,0.00,,,0.00,Wunderground v.1.15,2013-06-13 08:52:00,
2013-06-13 04:54:00,72.7,71.8,29.79,WSW,252,0.0,0.0,97,0.00,,,0.00,Wunderground v.1.15,2013-06-13 08:54:00,
2013-06-13 04:56:00,72.7,71.8,29.79,WSW,252,0.0,0.0,97,0.00,,,0.00,Wunderground v.1.15,2013-06-13 08:56:00,
2013-06-13 04:57:00,72.6,71.7,29.79,WSW,252,0.0,0.0,97,0.00,,,0.00,Wunderground v.1.15,2013-06-13 08:57:00,
2013-06-13 04:59:00,72.5,71.6,29.79,WSW,252,0.0,0.0,97,0.00,,,0.00,Wunderground v.1.15,2013-06-13 08:59:00,
2013-06-13 05:01:00,72.5,71.6,29.79,WSW,252,0.0,0.0,97,0.00,,,0.00,Wunderground v.1.15,2013-06-13 09:01:00,
2013-06-13 05:02:00,72.4,71.5,29.79,WSW,252,0.0,0.0,97,0.00,,,0.00,Wunderground v.1.15,2013-06-13 09:02:00,
2013-06-13 05:04:00,72.3,71.4,29.79,WSW,252,0.0,0.0,97,0.00,,,0.00,Wunderground v.1.15,2013-06-13 09:04:00,
2013-06-13 05:05:00,72.3,71.4,29.79,WSW,252,0.0,0.0,97,0.00,,,0.00,Wunderground v.1.15,2013-06-13 09:05:00,
2013-06-13 05:06:00,72.3,71.4,29.79,WSW,252,0.0,0.0,97,0.00,,,0.00,Wunderground v.1.15,2013-06-13 09:06:00,
2013-06-13 05:07:00,72.3,71.4,29.79,WSW,252,0.0,0.0,97,0.00,,,0.00,Wunderground v.1.15,2013-06-13 09:07:00,
2013-06-13 05:09:00,72.3,71.4,29.79,WSW,252,0.0,0.0,97,0.00,,,0.00,Wunderground v.1.15,2013-06-13 09:09:00,
2013-06-13 05:10:00,72.2,71.3,29.79,WSW,252,0.0,0.0,97,0.00,,,0.00,Wunderground v.1.15,2013-06-13 09:10:00,
2013-06-13 05:11:00,72.2,71.3,29.79,WSW,252,0.0,0.0,97,0.00,,,0.00,Wunderground v.1.15,2013-06-13 09:11:00,
2013-06-13 05:12:00,72.2,71.3,29.79,WSW,252,0.0,0.0,97,0.00,,,0.00,Wunderground v.1.15,2013-06-13 09:12:00,
2013-06-13 05:14:00,72.1,71.2,29.79,WSW,252,0.0,0.0,97,0.00,,,0.00,Wunderground v.1.15,2013-06-13 09:14:00,
2013-06-13 05:15:00,72.1,71.5,29.79,WSW,252,0.0,0.0,98,0.00,,,0.00,Wunderground v.1.15,2013-06-13 09:15:00,
2013-06-13 05:16:00,72.1,71.5,29.79,WSW,252,0.0,0.0,98,0.00,,,0.00,Wunderground v.1.15,2013-06-13 09:16:00,
2013-06-13 05:18:00,72.0,71.1,29.79,WSW,252,0.0,0.0,97,0.00,,,0.00,Wunderground v.1.15,2013-06-13 09:18:00,
2013-06-13 05:19:00,71.9,71.0,29.79,WSW,252,0.0,0.0,97,0.00,,,0.00,Wunderground v.1.15,2013-06-13 09:19:00,
2013-06-13 05:20:00,71.9,71.0,29.78,WSW,252,0.0,0.0,97,0.00,,,0.00,Wunderground v.1.15,2013-06-13 09:20:00,
2013-06-13 05:21:00,71.8,70.9,29.78,WSW,252,0.0,0.0,97,0.00,,,0.00,Wunderground v.1.15,2013-06-13 09:21:00,
2013-06-13 05:23:00,71.7,70.8,29.79,WSW,252,0.0,0.0,97,0.00,,,0.00,Wunderground v.1.15,2013-06-13 09:23:00,
2013-06-13 05:24:00,71.6,70.7,29.79,WSW,252,0.0,0.0,97,0.00,,,0.00,Wunderground v.1.15,2013-06-13 09:24:00,
2013-06-13 05:25:00,71.6,70.7,29.79,WSW,252,0.0,0.0,97,0.00,,,0.00,Wunderground v.1.15,2013-06-13 09:25:00,
2013-06-13 05:26:00,71.6,70.7,29.79,WSW,252,0.0,0.0,97,0.00,,,0.00,Wunderground v.1.15,2013-06-13 09:26:00,
2013-06-13 05:28:00,71.6,71.0,29.79,WSW,252,0.0,0.0,98,0.00,,,0.00,Wunderground v.1.15,2013-06-13 09:28:00,
2013-06-13 05:30:00,71.5,70.9,29.79,WSW,252,0.0,0.0,98,0.00,,,0.00,Wunderground v.1.15,2013-06-13 09:30:00,
2013-06-13 05:31:00,71.4,70.8,29.79,WSW,252,0.0,0.0,98,0.00,,,0.00,Wunderground v.1.15,2013-06-13 09:31:00,
2013-06-13 05:33:00,71.3,70.4,29.79,WSW,252,0.0,0.0,97,0.00,,,0.00,Wunderground v.1.15,2013-06-13 09:33:00,
2013-06-13 05:35:00,71.3,70.7,29.79,WSW,252,0.0,0.0,98,0.00,,,0.00,Wunderground v.1.15,2013-06-13 09:35:00,
2013-06-13 05:36:00,71.2,70.6,29.79,WSW,252,0.0,0.0,98,0.00,,,0.00,Wunderground v.1.15,2013-06-13 09:36:00,
2013-06-13 05:37:00,71.2,70.6,29.79,WSW,252,0.0,0.0,98,0.00,,,0.00,Wunderground v.1.15,2013-06-13 09:37:00,
2013-06-13 05:38:00,71.2,70.6,29.79,WSW,252,0.0,0.0,98,0.00,,,0.00,Wunderground v.1.15,2013-06-13 09:38:00,
2013-06-13 05:40:00,71.2,70.6,29.79,WSW,252,0.0,0.0,98,0.00,,,0.00,Wunderground v.1.15,2013-06-13 09:40:00,
2013-06-13 05:41:00,71.1,70.5,29.78,WSW,252,0.0,0.0,98,0.00,,,0.00,Wunderground v.1.15,2013-06-13 09:41:00,
2013-06-13 05:42:00,71.1,70.5,29.78,WSW,252,0.0,0.0,98,0.00,,,0.00,Wunderground v.1.15,2013-06-13 09:42:00,
2013-06-13 05:44:00,71.0,70.4,29.78,WSW,252,0.0,0.0,98,0.00,,,0.00,Wunderground v.1.15,2013-06-13 09:44:00,
2013-06-13 05:45:00,70.9,70.3,29.78,WSW,252,0.0,0.0,98,0.00,,,0.00,Wunderground v.1.15,2013-06-13 09:45:00,
2013-06-13 05:47:00,70.9,70.3,29.78,WSW,252,0.0,0.0,98,0.00,,,0.00,Wunderground v.1.15,2013-06-13 09:47:00,
2013-06-13 05:50:00,70.8,70.2,29.78,WSW,252,0.0,0.0,98,0.00,,,0.00,Wunderground v.1.15,2013-06-13 09:50:00,
2013-06-13 05:52:00,70.8,70.2,29.78,WSW,252,0.0,0.0,98,0.00,,,0.00,Wunderground v.1.15,2013-06-13 09:52:00,
2013-06-13 05:55:00,70.9,70.3,29.78,WSW,252,0.0,0.0,98,0.00,,,0.00,Wunderground v.1.15,2013-06-13 09:55:00,
2013-06-13 05:56:00,70.9,70.3,29.78,WSW,252,0.0,0.0,98,0.00,,,0.00,Wunderground v.1.15,2013-06-13 09:56:00,
2013-06-13 05:57:00,70.9,70.3,29.78,WSW,252,0.0,0.0,98,0.00,,,0.00,Wunderground v.1.15,2013-06-13 09:57:00,
2013-06-13 05:58:00,70.9,70.3,29.78,WSW,252,0.0,0.0,98,0.00,,,0.00,Wunderground v.1.15,2013-06-13 09:58:00,
2013-06-13 06:00:00,70.9,70.3,29.78,WSW,252,0.0,0.0,98,0.00,,,0.00,Wunderground v.1.15,2013-06-13 10:00:00,
2013-06-13 06:01:00,70.9,70.3,29.78,WSW,252,0.0,0.0,98,0.00,,,0.00,Wunderground v.1.15,2013-06-13 10:01:00,
2013-06-13 06:02:00,70.9,70.3,29.78,WSW,252,0.0,0.0,98,0.00,,,0.00,Wunderground v.1.15,2013-06-13 10:02:00,
2013-06-13 06:03:00,70.9,70.3,29.78,WSW,252,0.0,0.0,98,0.00,,,0.00,Wunderground v.1.15,2013-06-13 10:03:00,
2013-06-13 06:06:00,71.2,70.9,29.78,WSW,252,0.0,0.0,99,0.00,,,0.00,Wunderground v.1.15,2013-06-13 10:06:00,
2013-06-13 06:07:00,71.4,71.1,29.77,WSW,252,0.0,0.0,99,0.00,,,0.00,Wunderground v.1.15,2013-06-13 10:07:00,
2013-06-13 06:08:00,71.5,71.2,29.77,WSW,243,0.0,0.0,99,0.00,,,0.00,Wunderground v.1.15,2013-06-13 10:08:00,
2013-06-13 06:11:00,71.5,71.2,29.77,WSW,243,0.0,0.0,99,0.00,,,0.00,Wunderground v.1.15,2013-06-13 10:11:00,
2013-06-13 06:12:00,71.4,71.1,29.77,WSW,243,0.0,0.0,99,0.00,,,0.00,Wunderground v.1.15,2013-06-13 10:12:00,
2013-06-13 06:13:00,71.2,70.9,29.77,WSW,243,0.0,0.0,99,0.00,,,0.00,Wunderground v.1.15,2013-06-13 10:13:00,
2013-06-13 06:16:00,71.2,70.6,29.77,WSW,243,0.0,0.0,98,0.00,,,0.00,Wunderground v.1.15,2013-06-13 10:16:00,
2013-06-13 06:17:00,71.2,70.9,29.77,WSW,243,0.0,0.0,99,0.00,,,0.00,Wunderground v.1.15,2013-06-13 10:17:00,
2013-06-13 06:19:00,71.1,70.8,29.77,WSW,243,0.0,0.0,99,0.00,,,0.00,Wunderground v.1.15,2013-06-13 10:19:00,
2013-06-13 06:21:00,71.3,71.0,29.77,WSW,243,0.0,0.0,99,0.00,,,0.00,Wunderground v.1.15,2013-06-13 10:21:00,
2013-06-13 06:22:00,71.3,71.0,29.77,WSW,243,0.0,0.0,99,0.00,,,0.00,Wunderground v.1.15,2013-06-13 10:22:00,
2013-06-13 06:23:00,71.5,71.2,29.77,WSW,243,0.0,0.0,99,0.00,,,0.00,Wunderground v.1.15,2013-06-13 10:23:00,
2013-06-13 06:24:00,71.6,71.3,29.77,WSW,243,0.0,0.0,99,0.00,,,0.00,Wunderground v.1.15,2013-06-13 10:24:00,
2013-06-13 06:26:00,71.7,71.4,29.77,WSW,243,0.0,0.0,99,0.00,,,0.00,Wunderground v.1.15,2013-06-13 10:26:00,
2013-06-13 06:27:00,71.7,71.4,29.77,WSW,243,0.0,0.0,99,0.00,,,0.00,Wunderground v.1.15,2013-06-13 10:27:00,
2013-06-13 06:29:00,71.5,71.2,29.77,WSW,243,0.0,0.0,99,0.00,,,0.00,Wunderground v.1.15,2013-06-13 10:29:00,
2013-06-13 06:31:00,71.1,70.5,29.77,WSW,243,0.0,0.0,98,0.00,,,0.00,Wunderground v.1.15,2013-06-13 10:31:00,
2013-06-13 06:32:00,71.0,70.4,29.77,WSW,243,0.0,0.0,98,0.00,,,0.00,Wunderground v.1.15,2013-06-13 10:32:00,
2013-06-13 06:33:00,71.0,70.4,29.77,WSW,243,0.0,0.0,98,0.00,,,0.00,Wunderground v.1.15,2013-06-13 10:33:00,
2013-06-13 06:34:00,71.0,70.4,29.77,WSW,243,0.0,0.0,98,0.00,,,0.00,Wunderground v.1.15,2013-06-13 10:34:00,
2013-06-13 06:36:00,71.1,70.8,29.77,WSW,243,0.0,0.0,99,0.00,,,0.00,Wunderground v.1.15,2013-06-13 10:36:00,
2013-06-13 06:37:00,71.2,70.9,29.77,WSW,243,0.0,0.0,99,0.00,,,0.00,Wunderground v.1.15,2013-06-13 10:37:00,
2013-06-13 06:39:00,71.4,71.1,29.77,SW,232,0.0,0.0,99,0.00,,,0.00,Wunderground v.1.15,2013-06-13 10:39:00,
2013-06-13 06:40:00,71.5,71.2,29.77,SW,229,0.0,0.0,99,0.00,,,0.00,Wunderground v.1.15,2013-06-13 10:40:00,
2013-06-13 06:41:00,71.7,71.4,29.77,SW,235,2.0,2.0,99,0.00,,,0.00,Wunderground v.1.15,2013-06-13 10:41:00,
2013-06-13 06:42:00,71.7,71.4,29.77,SW,229,2.0,2.0,99,0.00,,,0.00,Wunderground v.1.15,2013-06-13 10:42:00,
2013-06-13 06:43:00,71.8,71.5,29.77,SW,235,2.0,2.0,99,0.00,,,0.00,Wunderground v.1.15,2013-06-13 10:43:00,
2013-06-13 06:44:00,71.9,71.6,29.77,SW,235,1.0,2.0,99,0.00,,,0.00,Wunderground v.1.15,2013-06-13 10:44:00,
2013-06-13 06:46:00,72.0,71.7,29.77,SW,236,1.0,2.0,99,0.00,,,0.00,Wunderground v.1.15,2013-06-13 10:46:00,
2013-06-13 06:47:00,72.0,71.7,29.77,SW,235,2.0,2.0,99,0.00,,,0.00,Wunderground v.1.15,2013-06-13 10:47:00,
2013-06-13 06:48:00,72.1,71.8,29.77,WSW,240,1.0,3.0,99,0.00,,,0.00,Wunderground v.1.15,2013-06-13 10:48:00,
2013-06-13 06:49:00,72.1,71.8,29.77,SW,226,2.0,3.0,99,0.00,,,0.00,Wunderground v.1.15,2013-06-13 10:49:00,
2013-06-13 06:51:00,72.1,71.8,29.77,SW,225,2.0,2.0,99,0.00,,,0.00,Wunderground v.1.15,2013-06-13 10:51:00,
2013-06-13 06:52:00,72.1,71.8,29.77,SW,236,1.0,2.0,99,0.00,,,0.00,Wunderground v.1.15,2013-06-13 10:52:00,
2013-06-13 06:54:00,72.2,71.9,29.77,WSW,240,3.0,5.0,99,0.00,,,0.00,Wunderground v.1.15,2013-06-13 10:54:00,
2013-06-13 06:55:00,72.2,71.9,29.77,SW,225,1.0,5.0,99,0.00,,,0.00,Wunderground v.1.15,2013-06-13 10:55:00,
2013-06-13 06:56:00,72.2,71.9,29.77,SW,225,0.0,5.0,99,0.00,,,0.00,Wunderground v.1.15,2013-06-13 10:56:00,
2013-06-13 06:57:00,72.3,72.0,29.77,SW,235,1.0,5.0,99,0.00,,,0.00,Wunderground v.1.15,2013-06-13 10:57:00,
2013-06-13 06:59:00,72.3,72.0,29.77,SW,235,1.0,5.0,99,0.00,,,0.00,Wunderground v.1.15,2013-06-13 10:59:00,
2013-06-13 07:00:00,72.3,72.0,29.76,SW,225,1.0,2.0,99,0.00,,,0.00,Wunderground v.1.15,2013-06-13 11:00:00,
2013-06-13 07:01:00,72.3,72.0,29.76,SW,225,1.0,2.0,99,0.00,,,0.00,Wunderground v.1.15,2013-06-13 11:01:00,
2013-06-13 07:02:00,72.3,72.0,29.76,SW,232,1.0,3.0,99,0.00,,,0.00,Wunderground v.1.15,2013-06-13 11:02:00,
2013-06-13 07:04:00,72.3,72.0,29.76,WSW,240,1.0,3.0,99,0.00,,,0.00,Wunderground v.1.15,2013-06-13 11:04:00,
2013-06-13 07:06:00,72.4,72.1,29.76,WSW,243,2.0,3.0,99,0.00,,,0.00,Wunderground v.1.15,2013-06-13 11:06:00,
2013-06-13 07:07:00,72.4,72.1,29.76,SW,225,2.0,3.0,99,0.00,,,0.00,Wunderground v.1.15,2013-06-13 11:07:00,
2013-06-13 07:08:00,72.4,72.1,29.76,WSW,240,2.0,3.0,99,0.00,,,0.00,Wunderground v.1.15,2013-06-13 11:08:00,
2013-06-13 07:09:00,72.4,72.1,29.76,SW,232,1.0,3.0,99,0.00,,,0.00,Wunderground v.1.15,2013-06-13 11:09:00,
2013-06-13 07:11:00,72.4,72.1,29.76,SW,235,3.0,3.0,99,0.00,,,0.00,Wunderground v.1.15,2013-06-13 11:11:00,
2013-06-13 07:12:00,72.4,72.1,29.76,SW,226,3.0,3.0,99,0.00,,,0.00,Wunderground v.1.15,2013-06-13 11:12:00,
2013-06-13 07:13:00,72.4,72.1,29.76,SW,232,2.0,3.0,99,0.00,,,0.00,Wunderground v.1.15,2013-06-13 11:13:00,
2013-06-13 07:14:00,72.4,72.1,29.76,WSW,241,1.0,3.0,99,0.00,,,0.00,Wunderground v.1.15,2013-06-13 11:14:00,
2013-06-13 07:16:00,72.5,72.2,29.76,SW,222,3.0,4.0,99,0.00,,,0.00,Wunderground v.1.15,2013-06-13 11:16:00,
2013-06-13 07:17:00,72.5,72.2,29.76,WSW,238,1.0,4.0,99,0.00,,,0.00,Wunderground v.1.15,2013-06-13 11:17:00,
2013-06-13 07:19:00,72.5,72.2,29.76,SW,219,2.0,4.0,99,0.00,,,0.00,Wunderground v.1.15,2013-06-13 11:19:00,
2013-06-13 07:20:00,72.5,72.2,29.76,WSW,240,1.0,2.0,99,0.00,,,0.00,Wunderground v.1.15,2013-06-13 11:20:00,
2013-06-13 07:21:00,72.6,72.3,29.76,SW,225,2.0,2.0,99,0.00,,,0.00,Wunderground v.1.15,2013-06-13 11:21:00,
2013-06-13 07:23:00,72.6,72.3,29.76,WSW,240,2.0,2.0,99,0.00,,,0.00,Wunderground v.1.15,2013-06-13 11:23:00,
2013-06-13 07:24:00,72.6,72.3,29.76,SW,235,1.0,3.0,99,0.00,,,0.00,Wunderground v.1.15,2013-06-13 11:24:00,
2013-06-13 07:25:00,72.7,72.4,29.76,SW,229,1.0,3.0,99,0.00,,,0.00,Wunderground v.1.15,2013-06-13 11:25:00,
2013-06-13 07:27:00,72.7,72.4,29.76,SW,222,3.0,3.0,99,0.00,,,0.00,Wunderground v.1.15,2013-06-13 11:27:00,
2013-06-13 07:29:00,72.7,72.4,29.76,SW,226,2.0,3.0,99,0.00,,,0.00,Wunderground v.1.15,2013-06-13 11:29:00,
2013-06-13 07:30:00,72.8,72.2,29.76,SW,228,1.0,1.0,98,0.00,,,0.00,Wunderground v.1.15,2013-06-13 11:30:00,
2013-06-13 07:32:00,72.8,72.2,29.76,WSW,238,2.0,3.0,98,0.00,,,0.00,Wunderground v.1.15,2013-06-13 11:32:00,
2013-06-13 07:34:00,72.9,72.3,29.76,SW,229,1.0,3.0,98,0.00,,,0.00,Wunderground v.1.15,2013-06-13 11:34:00,
2013-06-13 07:35:00,72.9,72.3,29.76,SW,232,1.0,3.0,98,0.00,,,0.00,Wunderground v.1.15,2013-06-13 11:35:00,
2013-06-13 07:37:00,73.0,72.4,29.76,SW,229,1.0,3.0,98,0.00,,,0.00,Wunderground v.1.15,2013-06-13 11:37:00,
2013-06-13 07:39:00,73.1,72.5,29.76,SW,235,1.0,3.0,98,0.00,,,0.00,Wunderground v.1.15,2013-06-13 11:39:00,
2013-06-13 07:40:00,73.1,72.5,29.76,SW,225,1.0,2.0,98,0.00,,,0.00,Wunderground v.1.15,2013-06-13 11:40:00,
2013-06-13 07:42:00,73.2,72.3,29.76,SW,225,0.0,2.0,97,0.00,,,0.00,Wunderground v.1.15,2013-06-13 11:42:00,
2013-06-13 07:45:00,73.3,72.4,29.76,WSW,240,1.0,2.0,97,0.00,,,0.00,Wunderground v.1.15,2013-06-13 11:45:00,
2013-06-13 07:47:00,73.4,72.5,29.76,WSW,239,0.0,2.0,97,0.00,,,0.00,Wunderground v.1.15,2013-06-13 11:47:00,
2013-06-13 07:50:00,73.6,72.4,29.76,SW,221,0.0,1.0,96,0.00,,,0.00,Wunderground v.1.15,2013-06-13 11:50:00,
2013-06-13 07:52:00,73.6,72.4,29.76,SW,221,0.0,1.0,96,0.00,,,0.00,Wunderground v.1.15,2013-06-13 11:52:00,
2013-06-13 07:53:00,73.7,72.5,29.76,WSW,238,2.0,2.0,96,0.00,,,0.00,Wunderground v.1.15,2013-06-13 11:53:00,
2013-06-13 07:55:00,73.8,72.6,29.76,SW,232,2.0,2.0,96,0.00,,,0.00,Wunderground v.1.15,2013-06-13 11:55:00,
2013-06-13 07:57:00,74.0,72.5,29.76,SW,226,1.0,4.0,95,0.00,,,0.00,Wunderground v.1.15,2013-06-13 11:57:00,
2013-06-13 07:59:00,74.1,72.6,29.76,SW,226,0.0,4.0,95,0.00,,,0.00,Wunderground v.1.15,2013-06-13 11:59:00,
2013-06-13 08:00:00,74.2,72.7,29.76,WSW,248,0.0,1.0,95,0.00,,,0.00,Wunderground v.1.15,2013-06-13 12:00:00,
2013-06-13 08:03:00,74.3,72.5,29.76,SW,226,2.0,2.0,94,0.00,,,0.00,Wunderground v.1.15,2013-06-13 12:03:00,
2013-06-13 08:04:00,74.4,72.6,29.76,SW,229,1.0,2.0,94,0.00,,,0.00,Wunderground v.1.15,2013-06-13 12:04:00,
2013-06-13 08:05:00,74.6,72.8,29.76,WSW,240,1.0,2.0,94,0.00,,,0.00,Wunderground v.1.15,2013-06-13 12:05:00,
2013-06-13 08:06:00,74.6,72.8,29.76,WSW,240,1.0,2.0,94,0.00,,,0.00,Wunderground v.1.15,2013-06-13 12:06:00,
2013-06-13 08:08:00,74.8,72.6,29.76,SW,231,2.0,2.0,93,0.00,,,0.00,Wunderground v.1.15,2013-06-13 12:08:00,
2013-06-13 08:09:00,74.9,72.4,29.76,SW,229,2.0,4.0,92,0.00,,,0.00,Wunderground v.1.15,2013-06-13 12:09:00,
2013-06-13 08:10:00,75.1,72.6,29.76,SW,226,2.0,2.0,92,0.00,,,0.00,Wunderground v.1.15,2013-06-13 12:10:00,
2013-06-13 08:11:00,75.1,72.6,29.76,SW,218,0.0,2.0,92,0.00,,,0.00,Wunderground v.1.15,2013-06-13 12:11:00,
2013-06-13 08:13:00,75.3,72.5,29.76,SW,236,1.0,3.0,91,0.00,,,0.00,Wunderground v.1.15,2013-06-13 12:13:00,
2013-06-13 08:14:00,75.4,72.6,29.76,WSW,242,1.0,3.0,91,0.00,,,0.00,Wunderground v.1.15,2013-06-13 12:14:00,
2013-06-13 08:16:00,75.6,72.8,29.76,West,263,1.0,3.0,91,0.00,,,0.00,Wunderground v.1.15,2013-06-13 12:16:00,
2013-06-13 08:18:00,75.8,73.0,29.76,WSW,243,0.0,3.0,91,0.00,,,0.00,Wunderground v.1.15,2013-06-13 12:18:00,
2013-06-13 08:20:00,75.9,72.8,29.76,WSW,237,2.0,2.0,90,0.00,,,0.00,Wunderground v.1.15,2013-06-13 12:20:00,
2013-06-13 08:21:00,76.1,73.0,29.76,SW,221,1.0,3.0,90,0.00,,,0.00,Wunderground v.1.15,2013-06-13 12:21:00,
2013-06-13 08:22:00,76.1,72.6,29.76,WSW,239,3.0,3.0,89,0.00,,,0.00,Wunderground v.1.15,2013-06-13 12:22:00,
2013-06-13 08:24:00,76.3,72.5,29.76,WSW,239,2.0,3.0,88,0.00,,,0.00,Wunderground v.1.15,2013-06-13 12:24:00,
2013-06-13 08:25:00,76.4,72.6,29.76,SSW,211,3.0,4.0,88,0.00,,,0.00,Wunderground v.1.15,2013-06-13 12:25:00,
2013-06-13 08:26:00,76.5,72.3,29.76,WSW,239,2.0,4.0,87,0.00,,,0.00,Wunderground v.1.15,2013-06-13 12:26:00,
2013-06-13 08:27:00,76.6,72.4,29.76,SW,222,4.0,5.0,87,0.00,,,0.00,Wunderground v.1.15,2013-06-13 12:27:00,
2013-06-13 08:29:00,76.9,72.7,29.76,SW,235,0.0,5.0,87,0.00,,,0.00,Wunderground v.1.15,2013-06-13 12:29:00,
2013-06-13 08:30:00,77.0,72.5,29.76,SW,232,1.0,2.0,86,0.00,,,0.00,Wunderground v.1.15,2013-06-13 12:30:00,
2013-06-13 08:31:00,77.1,72.6,29.75,WSW,256,1.0,2.0,86,0.00,,,0.00,Wunderground v.1.15,2013-06-13 12:31:00,
2013-06-13 08:32:00,77.1,72.6,29.75,West,271,1.0,2.0,86,0.00,,,0.00,Wunderground v.1.15,2013-06-13 12:32:00,
2013-06-13 08:35:00,77.5,72.6,29.75,SW,222,3.0,4.0,85,0.00,,,0.00,Wunderground v.1.15,2013-06-13 12:35:00,
2013-06-13 08:36:00,77.7,72.8,29.75,SW,221,1.0,4.0,85,0.00,,,0.00,Wunderground v.1.15,2013-06-13 12:36:00,
2013-06-13 08:37:00,77.7,72.5,29.75,WSW,253,0.0,4.0,84,0.00,,,0.00,Wunderground v.1.15,2013-06-13 12:37:00,
2013-06-13 08:40:00,78.3,71.2,29.75,West,270,2.0,2.0,79,0.00,,,0.00,Wunderground v.1.15,2013-06-13 12:40:00,
2013-06-13 08:41:00,78.5,71.8,29.75,SW,215,1.0,4.0,80,0.00,,,0.00,Wunderground v.1.15,2013-06-13 12:41:00,
2013-06-13 08:42:00,78.6,71.9,29.75,SW,232,4.0,4.0,80,0.00,,,0.00,Wunderground v.1.15,2013-06-13 12:42:00,
2013-06-13 08:43:00,78.8,71.4,29.75,West,278,1.0,6.0,78,0.00,,,0.00,Wunderground v.1.15,2013-06-13 12:43:00,
2013-06-13 08:45:00,79.0,71.2,29.75,SW,225,0.0,6.0,77,0.00,,,0.00,Wunderground v.1.15,2013-06-13 12:45:00,
2013-06-13 08:46:00,79.2,71.7,29.75,SW,229,1.0,6.0,78,0.00,,,0.00,Wunderground v.1.15,2013-06-13 12:46:00,
2013-06-13 08:47:00,79.2,71.7,29.75,WSW,238,2.0,6.0,78,0.00,,,0.00,Wunderground v.1.15,2013-06-13 12:47:00,
2013-06-13 08:49:00,79.5,72.0,29.75,WSW,248,2.0,6.0,78,0.00,,,0.00,Wunderground v.1.15,2013-06-13 12:49:00,
2013-06-13 08:50:00,79.6,71.8,29.75,SSW,207,3.0,4.0,77,0.00,,,0.00,Wunderground v.1.15,2013-06-13 12:50:00,
2013-06-13 08:51:00,79.7,70.7,29.75,WSW,252,1.0,4.0,74,0.00,,,0.00,Wunderground v.1.15,2013-06-13 12:51:00,
2013-06-13 08:52:00,79.8,71.2,29.75,SSW,212,5.0,6.0,75,0.00,,,0.00,Wunderground v.1.15,2013-06-13 12:52:00,
2013-06-13 08:54:00,80.0,71.4,29.75,WNW,297,1.0,7.0,75,0.00,,,0.00,Wunderground v.1.15,2013-06-13 12:54:00,
2013-06-13 08:55:00,80.2,71.6,29.75,SW,231,1.0,7.0,75,0.00,,,0.00,Wunderground v.1.15,2013-06-13 12:55:00,
2013-06-13 08:56:00,80.3,71.6,29.75,SW,236,4.0,7.0,75,0.00,,,0.00,Wunderground v.1.15,2013-06-13 12:56:00,
2013-06-13 08:57:00,80.4,71.3,29.76,WSW,242,1.0,7.0,74,0.00,,,0.00,Wunderground v.1.15,2013-06-13 12:57:00,
2013-06-13 08:58:00,80.4,71.7,29.76,SW,235,2.0,7.0,75,0.00,,,0.00,Wunderground v.1.15,2013-06-13 12:58:00,
2013-06-13 08:59:00,80.5,71.8,29.76,SW,229,2.0,7.0,75,0.00,,,0.00,Wunderground v.1.15,2013-06-13 12:59:00,
2013-06-13 09:00:00,80.6,71.1,29.76,SW,222,1.0,4.0,73,0.00,,,0.00,Wunderground v.1.15,2013-06-13 13:00:00,
2013-06-13 09:02:00,80.8,71.3,29.75,WNW,299,3.0,4.0,73,0.00,,,0.00,Wunderground v.1.15,2013-06-13 13:02:00,
2013-06-13 09:03:00,80.9,71.8,29.76,WSW,242,1.0,4.0,74,0.00,,,0.00,Wunderground v.1.15,2013-06-13 13:03:00,
2013-06-13 09:04:00,81.0,71.9,29.75,SSW,203,1.0,4.0,74,0.00,,,0.00,Wunderground v.1.15,2013-06-13 13:04:00,
2013-06-13 09:05:00,81.2,71.7,29.75,West,267,1.0,4.0,73,0.00,,,0.00,Wunderground v.1.15,2013-06-13 13:05:00,
2013-06-13 09:07:00,81.4,71.5,29.75,WSW,238,2.0,4.0,72,0.00,,,0.00,Wunderground v.1.15,2013-06-13 13:07:00,
2013-06-13 09:08:00,81.5,71.2,29.75,SW,217,2.0,5.0,71,0.00,,,0.00,Wunderground v.1.15,2013-06-13 13:08:00,
2013-06-13 09:09:00,81.5,71.6,29.75,West,278,3.0,5.0,72,0.00,,,0.00,Wunderground v.1.15,2013-06-13 13:09:00,
2013-06-13 09:11:00,81.7,71.0,29.75,SSW,200,2.0,5.0,70,0.00,,,0.00,Wunderground v.1.15,2013-06-13 13:11:00,
2013-06-13 09:12:00,81.8,71.1,29.75,SW,231,3.0,5.0,70,0.00,,,0.00,Wunderground v.1.15,2013-06-13 13:12:00,
2013-06-13 09:14:00,81.9,71.2,29.75,WNW,288,3.0,5.0,70,0.00,,,0.00,Wunderground v.1.15,2013-06-13 13:14:00,
2013-06-13 09:16:00,82.1,71.3,29.75,WSW,257,3.0,5.0,70,0.00,,,0.00,Wunderground v.1.15,2013-06-13 13:16:00,
2013-06-13 09:17:00,82.2,71.0,29.75,WSW,240,3.0,5.0,69,0.00,,,0.00,Wunderground v.1.15,2013-06-13 13:17:00,
2013-06-13 09:19:00,82.3,71.1,29.75,WSW,250,2.0,5.0,69,0.00,,,0.00,Wunderground v.1.15,2013-06-13 13:19:00,
2013-06-13 09:21:00,82.4,71.6,29.75,SW,231,2.0,3.0,70,0.00,,,0.00,Wunderground v.1.15,2013-06-13 13:21:00,
2013-06-13 09:22:00,82.6,73.1,29.75,SW,231,0.0,3.0,73,0.00,,,0.00,Wunderground v.1.15,2013-06-13 13:22:00,
2013-06-13 09:23:00,82.7,73.2,29.75,SW,231,0.0,3.0,73,0.00,,,0.00,Wunderground v.1.15,2013-06-13 13:23:00,
2013-06-13 09:24:00,82.8,73.3,29.76,West,275,1.0,3.0,73,0.00,,,0.00,Wunderground v.1.15,2013-06-13 13:24:00,
2013-06-13 09:26:00,83.1,71.9,29.76,SSW,198,2.0,3.0,69,0.00,,,0.00,Wunderground v.1.15,2013-06-13 13:26:00,
2013-06-13 09:27:00,83.2,72.0,29.76,SW,220,3.0,5.0,69,0.00,,,0.00,Wunderground v.1.15,2013-06-13 13:27:00,
2013-06-13 09:28:00,83.3,71.2,29.76,West,259,1.0,5.0,67,0.00,,,0.00,Wunderground v.1.15,2013-06-13 13:28:00,
2013-06-13 09:29:00,83.3,71.6,29.76,SW,235,3.0,5.0,68,0.00,,,0.00,Wunderground v.1.15,2013-06-13 13:29:00,
2013-06-13 09:30:00,83.4,71.7,29.75,WSW,243,2.0,2.0,68,0.00,,,0.00,Wunderground v.1.15,2013-06-13 13:30:00,
2013-06-13 09:31:00,83.5,72.7,29.75,WSW,240,1.0,2.0,70,0.00,,,0.00,Wunderground v.1.15,2013-06-13 13:31:00,
2013-06-13 09:32:00,83.6,72.8,29.75,SW,215,1.0,2.0,70,0.00,,,0.00,Wunderground v.1.15,2013-06-13 13:32:00,
2013-06-13 09:33:00,83.7,72.4,29.75,SW,221,3.0,3.0,69,0.00,,,0.00,Wunderground v.1.15,2013-06-13 13:33:00,
2013-06-13 09:34:00,83.7,71.6,29.75,SW,232,1.0,6.0,67,0.00,,,0.00,Wunderground v.1.15,2013-06-13 13:34:00,
2013-06-13 09:35:00,83.8,71.7,29.75,SW,232,4.0,6.0,67,0.00,,,0.00,Wunderground v.1.15,2013-06-13 13:35:00,
2013-06-13 09:36:00,83.9,71.3,29.75,West,259,2.0,6.0,66,0.00,,,0.00,Wunderground v.1.15,2013-06-13 13:36:00,
2013-06-13 09:38:00,84.0,71.9,29.75,WSW,240,1.0,6.0,67,0.00,,,0.00,Wunderground v.1.15,2013-06-13 13:38:00,
2013-06-13 09:39:00,84.2,72.5,29.75,SW,228,2.0,6.0,68,0.00,,,0.00,Wunderground v.1.15,2013-06-13 13:39:00,
2013-06-13 09:40:00,84.2,72.5,29.75,SW,230,2.0,2.0,68,0.00,,,0.00,Wunderground v.1.15,2013-06-13 13:40:00,
2013-06-13 09:41:00,84.4,72.7,29.75,SW,232,3.0,3.0,68,0.00,,,0.00,Wunderground v.1.15,2013-06-13 13:41:00,
2013-06-13 09:43:00,84.5,72.3,29.75,SW,235,6.0,6.0,67,0.00,,,0.00,Wunderground v.1.15,2013-06-13 13:43:00,
2013-06-13 09:45:00,84.6,72.0,29.75,WSW,248,2.0,6.0,66,0.00,,,0.00,Wunderground v.1.15,2013-06-13 13:45:00,
2013-06-13 09:46:00,84.6,71.5,29.75,SW,235,3.0,6.0,65,0.00,,,0.00,Wunderground v.1.15,2013-06-13 13:46:00,
2013-06-13 09:48:00,84.7,71.6,29.75,SW,231,1.0,6.0,65,0.00,,,0.00,Wunderground v.1.15,2013-06-13 13:48:00,
2013-06-13 09:49:00,84.7,71.6,29.75,SW,230,3.0,7.0,65,0.00,,,0.00,Wunderground v.1.15,2013-06-13 13:49:00,
2013-06-13 09:50:00,84.8,71.3,29.75,WSW,253,3.0,3.0,64,0.00,,,0.00,Wunderground v.1.15,2013-06-13 13:50:00,
2013-06-13 09:52:00,84.9,71.8,29.75,SW,232,2.0,4.0,65,0.00,,,0.00,Wunderground v.1.15,2013-06-13 13:52:00,
2013-06-13 09:53:00,85.0,71.9,29.75,WSW,250,1.0,4.0,65,0.00,,,0.00,Wunderground v.1.15,2013-06-13 13:53:00,
2013-06-13 09:54:00,85.0,71.9,29.75,WSW,250,1.0,4.0,65,0.00,,,0.00,Wunderground v.1.15,2013-06-13 13:54:00,
2013-06-13 09:55:00,85.1,72.5,29.75,WSW,243,2.0,4.0,66,0.00,,,0.00,Wunderground v.1.15,2013-06-13 13:55:00,
2013-06-13 09:57:00,85.1,72.0,29.75,WSW,237,4.0,4.0,65,0.00,,,0.00,Wunderground v.1.15,2013-06-13 13:57:00,
2013-06-13 09:58:00,85.2,72.1,29.75,WSW,241,1.0,4.0,65,0.00,,,0.00,Wunderground v.1.15,2013-06-13 13:58:00,
2013-06-13 09:59:00,85.2,72.1,29.75,SW,222,4.0,5.0,65,0.00,,,0.00,Wunderground v.1.15,2013-06-13 13:59:00,
2013-06-13 10:00:00,85.2,71.2,29.75,WSW,256,2.0,6.0,63,0.00,,,0.00,Wunderground v.1.15,2013-06-13 14:00:00,
2013-06-13 10:01:00,85.2,70.7,29.75,SW,229,4.0,6.0,62,0.00,,,0.00,Wunderground v.1.15,2013-06-13 14:01:00,
2013-06-13 10:02:00,85.1,70.6,29.74,West,266,3.0,6.0,62,0.00,,,0.00,Wunderground v.1.15,2013-06-13 14:02:00,
2013-06-13 10:03:00,85.1,70.6,29.74,WSW,243,3.0,6.0,62,0.00,,,0.00,Wunderground v.1.15,2013-06-13 14:03:00,
2013-06-13 10:04:00,85.1,70.6,29.74,SW,231,4.0,6.0,62,0.00,,,0.00,Wunderground v.1.15,2013-06-13 14:04:00,
2013-06-13 10:05:00,85.2,70.2,29.74,SW,228,4.0,6.0,61,0.00,,,0.00,Wunderground v.1.15,2013-06-13 14:05:00,
2013-06-13 10:06:00,85.2,70.7,29.74,SW,216,3.0,6.0,62,0.00,,,0.00,Wunderground v.1.15,2013-06-13 14:06:00,
2013-06-13 10:07:00,85.2,70.7,29.74,SW,235,4.0,6.0,62,0.00,,,0.00,Wunderground v.1.15,2013-06-13 14:07:00,
2013-06-13 10:09:00,85.2,71.6,29.74,SSW,210,1.0,6.0,64,0.00,,,0.00,Wunderground v.1.15,2013-06-13 14:09:00,
2013-06-13 10:11:00,85.4,71.4,29.74,WSW,250,1.0,3.0,63,0.00,,,0.00,Wunderground v.1.15,2013-06-13 14:11:00,
2013-06-13 10:12:00,85.5,71.9,29.74,SW,217,0.0,3.0,64,0.00,,,0.00,Wunderground v.1.15,2013-06-13 14:12:00,
2013-06-13 10:14:00,85.6,72.5,29.74,SW,226,3.0,3.0,65,0.00,,,0.00,Wunderground v.1.15,2013-06-13 14:14:00,
2013-06-13 10:15:00,85.7,71.7,29.74,WSW,250,3.0,5.0,63,0.00,,,0.00,Wunderground v.1.15,2013-06-13 14:15:00,
2013-06-13 10:16:00,85.8,72.2,29.74,SW,221,0.0,5.0,64,0.00,,,0.00,Wunderground v.1.15,2013-06-13 14:16:00,
2013-06-13 10:18:00,85.9,71.8,29.74,SW,225,4.0,5.0,63,0.00,,,0.00,Wunderground v.1.15,2013-06-13 14:18:00,
2013-06-13 10:19:00,85.9,72.3,29.74,WSW,240,1.0,5.0,64,0.00,,,0.00,Wunderground v.1.15,2013-06-13 14:19:00,
2013-06-13 10:20:00,86.1,72.0,29.73,WSW,250,1.0,2.0,63,0.00,,,0.00,Wunderground v.1.15,2013-06-13 14:20:00,
2013-06-13 10:21:00,86.1,73.0,29.74,WSW,243,5.0,5.0,65,0.00,,,0.00,Wunderground v.1.15,2013-06-13 14:21:00,
2013-06-13 10:23:00,86.2,71.6,29.74,WSW,258,2.0,5.0,62,0.00,,,0.00,Wunderground v.1.15,2013-06-13 14:23:00,
2013-06-13 10:25:00,86.3,72.7,29.74,SW,218,4.0,5.0,64,0.00,,,0.00,Wunderground v.1.15,2013-06-13 14:25:00,
2013-06-13 10:26:00,86.3,71.7,29.74,SSW,203,2.0,5.0,62,0.00,,,0.00,Wunderground v.1.15,2013-06-13 14:26:00,
2013-06-13 10:28:00,86.3,71.7,29.74,SSW,198,1.0,5.0,62,0.00,,,0.00,Wunderground v.1.15,2013-06-13 14:28:00,
2013-06-13 10:30:00,86.4,70.9,29.73,SW,218,3.0,5.0,60,0.00,,,0.00,Wunderground v.1.15,2013-06-13 14:30:00,
2013-06-13 10:31:00,86.3,71.3,29.73,WSW,238,3.0,5.0,61,0.00,,,0.00,Wunderground v.1.15,2013-06-13 14:31:00,
2013-06-13 10:32:00,86.4,71.4,29.74,WSW,253,2.0,5.0,61,0.00,,,0.00,Wunderground v.1.15,2013-06-13 14:32:00,
2013-06-13 10:33:00,86.4,71.4,29.73,WSW,239,1.0,5.0,61,0.00,,,0.00,Wunderground v.1.15,2013-06-13 14:33:00,
2013-06-13 10:35:00,86.5,71.9,29.73,WSW,250,2.0,5.0,62,0.00,,,0.00,Wunderground v.1.15,2013-06-13 14:35:00,
2013-06-13 10:36:00,86.6,73.4,29.73,SW,214,1.0,5.0,65,0.00,,,0.00,Wunderground v.1.15,2013-06-13 14:36:00,
2013-06-13 10:37:00,86.7,73.1,29.73,SW,229,2.0,5.0,64,0.00,,,0.00,Wunderground v.1.15,2013-06-13 14:37:00,
2013-06-13 10:39:00,86.8,71.2,29.73,West,276,1.0,6.0,60,0.00,,,0.00,Wunderground v.1.15,2013-06-13 14:39:00,
2013-06-13 10:40:00,86.8,72.2,29.73,WSW,239,2.0,2.0,62,0.00,,,0.00,Wunderground v.1.15,2013-06-13 14:40:00,
2013-06-13 10:41:00,86.9,71.8,29.73,SW,226,2.0,2.0,61,0.00,,,0.00,Wunderground v.1.15,2013-06-13 14:41:00,
2013-06-13 10:42:00,86.9,71.8,29.73,West,264,1.0,3.0,61,0.00,,,0.00,Wunderground v.1.15,2013-06-13 14:42:00,
2013-06-13 10:44:00,86.9,71.3,29.73,SW,215,3.0,6.0,60,0.00,,,0.00,Wunderground v.1.15,2013-06-13 14:44:00,
2013-06-13 10:45:00,87.0,72.9,29.73,SW,225,0.0,6.0,63,0.00,,,0.00,Wunderground v.1.15,2013-06-13 14:45:00,
2013-06-13 10:46:00,87.1,72.5,29.73,SW,235,0.0,6.0,62,0.00,,,0.00,Wunderground v.1.15,2013-06-13 14:46:00,
2013-06-13 10:47:00,87.1,72.5,29.73,SW,235,0.0,6.0,62,0.00,,,0.00,Wunderground v.1.15,2013-06-13 14:47:00,
2013-06-13 10:49:00,87.2,73.5,29.73,WSW,246,5.0,7.0,64,0.00,,,0.00,Wunderground v.1.15,2013-06-13 14:49:00,
2013-06-13 10:51:00,87.1,70.5,29.73,South,169,1.0,6.0,58,0.00,,,0.00,Wunderground v.1.15,2013-06-13 14:51:00,
2013-06-13 10:52:00,87.0,69.9,29.73,SSW,210,3.0,6.0,57,0.00,,,0.00,Wunderground v.1.15,2013-06-13 14:52:00,
2013-06-13 10:54:00,87.0,71.4,29.72,West,269,0.0,6.0,60,0.00,,,0.00,Wunderground v.1.15,2013-06-13 14:54:00,
2013-06-13 10:56:00,87.1,70.5,29.72,West,269,1.0,6.0,58,0.00,,,0.00,Wunderground v.1.15,2013-06-13 14:56:00,
2013-06-13 10:57:00,87.2,70.6,29.72,WSW,240,4.0,6.0,58,0.00,,,0.00,Wunderground v.1.15,2013-06-13 14:57:00,
2013-06-13 10:58:00,87.3,71.2,29.73,SSW,196,1.0,6.0,59,0.00,,,0.00,Wunderground v.1.15,2013-06-13 14:58:00,
2013-06-13 11:00:00,87.3,70.7,29.72,SSW,200,2.0,2.0,58,0.00,,,0.00,Wunderground v.1.15,2013-06-13 15:00:00,
2013-06-13 11:01:00,87.4,71.3,29.72,SW,221,6.0,6.0,59,0.00,,,0.00,Wunderground v.1.15,2013-06-13 15:01:00,
2013-06-13 11:02:00,87.3,70.2,29.72,SSW,197,4.0,9.0,57,0.00,,,0.00,Wunderground v.1.15,2013-06-13 15:02:00,
2013-06-13 11:03:00,87.3,70.7,29.72,SW,215,1.0,9.0,58,0.00,,,0.00,Wunderground v.1.15,2013-06-13 15:03:00,
2013-06-13 11:06:00,87.3,71.7,29.72,SSW,204,1.0,9.0,60,0.00,,,0.00,Wunderground v.1.15,2013-06-13 15:06:00,
2013-06-13 11:07:00,87.5,71.4,29.72,SSW,211,1.0,9.0,59,0.00,,,0.00,Wunderground v.1.15,2013-06-13 15:07:00,
2013-06-13 11:08:00,87.5,71.4,29.72,SW,227,3.0,9.0,59,0.00,,,0.00,Wunderground v.1.15,2013-06-13 15:08:00,
2013-06-13 11:09:00,87.6,72.0,29.72,SSW,200,1.0,9.0,60,0.00,,,0.00,Wunderground v.1.15,2013-06-13 15:09:00,
2013-06-13 11:11:00,87.7,70.6,29.72,WSW,238,4.0,4.0,57,0.00,,,0.00,Wunderground v.1.15,2013-06-13 15:11:00,
2013-06-13 11:12:00,87.8,71.7,29.72,WSW,249,4.0,5.0,59,0.00,,,0.00,Wunderground v.1.15,2013-06-13 15:12:00,
2013-06-13 11:13:00,87.8,70.7,29.72,WSW,247,3.0,5.0,57,0.00,,,0.00,Wunderground v.1.15,2013-06-13 15:13:00,
2013-06-13 11:14:00,87.8,70.7,29.72,WSW,250,5.0,5.0,57,0.00,,,0.00,Wunderground v.1.15,2013-06-13 15:14:00,
2013-06-13 11:16:00,87.9,72.8,29.72,SW,233,2.0,5.0,61,0.00,,,0.00,Wunderground v.1.15,2013-06-13 15:16:00,
2013-06-13 11:17:00,87.9,72.3,29.72,SW,215,3.0,5.0,60,0.00,,,0.00,Wunderground v.1.15,2013-06-13 15:17:00,
2013-06-13 11:19:00,88.0,70.3,29.72,WSW,241,4.0,5.0,56,0.00,,,0.00,Wunderground v.1.15,2013-06-13 15:19:00,
2013-06-13 11:22:00,88.0,72.4,29.71,SSW,211,5.0,5.0,60,0.00,,,0.00,Wunderground v.1.15,2013-06-13 15:22:00,
2013-06-13 11:23:00,88.0,71.4,29.71,WSW,240,6.0,6.0,58,0.00,,,0.00,Wunderground v.1.15,2013-06-13 15:23:00,
2013-06-13 11:24:00,88.0,70.3,29.71,SW,215,1.0,7.0,56,0.00,,,0.00,Wunderground v.1.15,2013-06-13 15:24:00,
2013-06-13 11:27:00,88.0,71.4,29.71,WSW,240,2.0,7.0,58,0.00,,,0.00,Wunderground v.1.15,2013-06-13 15:27:00,
2013-06-13 11:28:00,88.0,71.4,29.71,SW,226,3.0,7.0,58,0.00,,,0.00,Wunderground v.1.15,2013-06-13 15:28:00,
2013-06-13 11:30:00,88.1,71.5,29.71,SSW,205,1.0,7.0,58,0.00,,,0.00,Wunderground v.1.15,2013-06-13 15:30:00,
2013-06-13 11:32:00,88.4,71.7,29.71,South,188,1.0,4.0,58,0.00,,,0.00,Wunderground v.1.15,2013-06-13 15:32:00,
2013-06-13 11:33:00,88.4,71.7,29.71,South,189,0.0,4.0,58,0.00,,,0.00,Wunderground v.1.15,2013-06-13 15:33:00,
2013-06-13 11:35:00,88.7,71.5,29.71,SW,226,4.0,7.0,57,0.00,,,0.00,Wunderground v.1.15,2013-06-13 15:35:00,
2013-06-13 11:37:00,88.5,70.8,29.71,SW,219,4.0,7.0,56,0.00,,,0.00,Wunderground v.1.15,2013-06-13 15:37:00,
2013-06-13 11:38:00,88.4,71.2,29.71,WSW,241,4.0,7.0,57,0.00,,,0.00,Wunderground v.1.15,2013-06-13 15:38:00,
2013-06-13 11:40:00,88.4,71.7,29.71,SW,215,1.0,3.0,58,0.00,,,0.00,Wunderground v.1.15,2013-06-13 15:40:00,
2013-06-13 11:42:00,88.6,72.4,29.71,SW,233,4.0,4.0,59,0.00,,,0.00,Wunderground v.1.15,2013-06-13 15:42:00,
2013-06-13 11:43:00,88.6,72.4,29.71,SW,233,8.0,8.0,59,0.00,,,0.00,Wunderground v.1.15,2013-06-13 15:43:00,
2013-06-13 11:45:00,88.5,71.8,29.71,SSW,195,3.0,8.0,58,0.00,,,0.00,Wunderground v.1.15,2013-06-13 15:45:00,
2013-06-13 11:48:00,88.4,72.2,29.71,SSW,212,4.0,8.0,59,0.00,,,0.00,Wunderground v.1.15,2013-06-13 15:48:00,
2013-06-13 11:49:00,88.3,71.1,29.71,WSW,240,7.0,8.0,57,0.00,,,0.00,Wunderground v.1.15,2013-06-13 15:49:00,
2013-06-13 11:50:00,88.2,71.0,29.71,SW,235,3.0,5.0,57,0.00,,,0.00,Wunderground v.1.15,2013-06-13 15:50:00,
2013-06-13 11:53:00,88.1,71.5,29.71,SW,233,2.0,6.0,58,0.00,,,0.00,Wunderground v.1.15,2013-06-13 15:53:00,
2013-06-13 11:54:00,88.1,72.0,29.71,SSW,199,2.0,6.0,59,0.00,,,0.00,Wunderground v.1.15,2013-06-13 15:54:00,
2013-06-13 11:55:00,88.2,72.1,29.71,SSW,211,0.0,6.0,59,0.00,,,0.00,Wunderground v.1.15,2013-06-13 15:55:00,
2013-06-13 11:56:00,88.3,72.7,29.71,WSW,240,2.0,6.0,60,0.00,,,0.00,Wunderground v.1.15,2013-06-13 15:56:00,
2013-06-13 11:58:00,88.3,71.6,29.71,SW,233,2.0,7.0,58,0.00,,,0.00,Wunderground v.1.15,2013-06-13 15:58:00,
2013-06-13 11:59:00,88.3,70.6,29.71,SSW,205,2.0,7.0,56,0.00,,,0.00,Wunderground v.1.15,2013-06-13 15:59:00,
2013-06-13 12:00:00,88.2,70.5,29.71,West,274,2.0,5.0,56,0.00,,,0.00,Wunderground v.1.15,2013-06-13 16:00:00,
2013-06-13 12:01:00,88.2,71.0,29.71,WSW,238,7.0,7.0,57,0.00,,,0.00,Wunderground v.1.15,2013-06-13 16:01:00,
2013-06-13 12:04:00,88.2,71.6,29.70,SW,225,3.0,8.0,58,0.00,,,0.00,Wunderground v.1.15,2013-06-13 16:04:00,
2013-06-13 12:05:00,88.2,71.6,29.70,SW,224,4.0,8.0,58,0.00,,,0.00,Wunderground v.1.15,2013-06-13 16:05:00,
2013-06-13 12:06:00,88.2,71.6,29.70,SW,215,2.0,8.0,58,0.00,,,0.00,Wunderground v.1.15,2013-06-13 16:06:00,
2013-06-13 12:09:00,88.3,72.7,29.70,West,264,6.0,8.0,60,0.00,,,0.00,Wunderground v.1.15,2013-06-13 16:09:00,
2013-06-13 12:11:00,88.2,71.0,29.70,SSW,193,1.0,3.0,57,0.00,,,0.00,Wunderground v.1.15,2013-06-13 16:11:00,
2013-06-13 12:14:00,88.4,71.7,29.70,SSW,210,2.0,6.0,58,0.00,,,0.00,Wunderground v.1.15,2013-06-13 16:14:00,
2013-06-13 12:15:00,88.4,72.2,29.70,SSW,212,4.0,6.0,59,0.00,,,0.00,Wunderground v.1.15,2013-06-13 16:15:00,
2013-06-13 12:16:00,88.4,71.7,29.70,West,273,3.0,8.0,58,0.00,,,0.00,Wunderground v.1.15,2013-06-13 16:16:00,
2013-06-13 12:19:00,88.3,71.6,29.70,WSW,245,3.0,8.0,58,0.00,,,0.00,Wunderground v.1.15,2013-06-13 16:19:00,
2013-06-13 12:20:00,88.3,73.1,29.70,WSW,238,3.0,3.0,61,0.00,,,0.00,Wunderground v.1.15,2013-06-13 16:20:00,
2013-06-13 12:21:00,88.3,72.2,29.70,SSW,204,3.0,5.0,59,0.00,,,0.00,Wunderground v.1.15,2013-06-13 16:21:00,
2013-06-13 12:22:00,88.3,71.1,29.70,NW,309,4.0,5.0,57,0.00,,,0.00,Wunderground v.1.15,2013-06-13 16:22:00,
2013-06-13 12:24:00,88.3,74.1,29.70,WSW,246,0.0,5.0,63,0.00,,,0.00,Wunderground v.1.15,2013-06-13 16:24:00,
2013-06-13 12:25:00,88.5,73.3,29.70,SE,125,1.0,5.0,61,0.00,,,0.00,Wunderground v.1.15,2013-06-13 16:25:00,
2013-06-13 12:26:00,88.5,71.8,29.70,SW,222,4.0,5.0,58,0.00,,,0.00,Wunderground v.1.15,2013-06-13 16:26:00,
2013-06-13 12:27:00,88.6,70.9,29.70,WSW,250,1.0,5.0,56,0.00,,,0.00,Wunderground v.1.15,2013-06-13 16:27:00,
2013-06-13 12:29:00,88.6,71.9,29.69,SW,229,5.0,7.0,58,0.00,,,0.00,Wunderground v.1.15,2013-06-13 16:29:00,
2013-06-13 12:30:00,88.6,71.9,29.69,SSW,207,2.0,5.0,58,0.00,,,0.00,Wunderground v.1.15,2013-06-13 16:30:00,
2013-06-13 12:31:00,88.6,71.4,29.69,SW,217,3.0,5.0,57,0.00,,,0.00,Wunderground v.1.15,2013-06-13 16:31:00,
2013-06-13 12:32:00,88.6,71.9,29.69,SW,228,2.0,5.0,58,0.00,,,0.00,Wunderground v.1.15,2013-06-13 16:32:00,
2013-06-13 12:35:00,88.4,70.7,29.69,WSW,237,1.0,8.0,56,0.00,,,0.00,Wunderground v.1.15,2013-06-13 16:35:00,
2013-06-13 12:36:00,88.4,71.7,29.69,SW,224,4.0,8.0,58,0.00,,,0.00,Wunderground v.1.15,2013-06-13 16:36:00,
2013-06-13 12:37:00,88.4,71.7,29.69,SW,219,4.0,8.0,58,0.00,,,0.00,Wunderground v.1.15,2013-06-13 16:37:00,
2013-06-13 12:40:00,88.4,71.2,29.69,WSW,252,3.0,3.0,57,0.00,,,0.00,Wunderground v.1.15,2013-06-13 16:40:00,
2013-06-13 12:41:00,88.4,72.7,29.69,SSW,205,0.0,3.0,60,0.00,,,0.00,Wunderground v.1.15,2013-06-13 16:41:00,
2013-06-13 12:42:00,88.5,72.8,29.69,SW,221,1.0,3.0,60,0.00,,,0.00,Wunderground v.1.15,2013-06-13 16:42:00,
2013-06-13 12:45:00,88.6,70.9,29.69,SSW,201,0.0,7.0,56,0.00,,,0.00,Wunderground v.1.15,2013-06-13 16:45:00,
2013-06-13 12:46:00,88.7,69.9,29.69,WSW,239,2.0,7.0,54,0.00,,,0.00,Wunderground v.1.15,2013-06-13 16:46:00,
2013-06-13 12:47:00,88.7,69.9,29.69,SSW,207,1.0,7.0,54,0.00,,,0.00,Wunderground v.1.15,2013-06-13 16:47:00,
2013-06-13 12:50:00,88.8,70.5,29.69,SW,235,1.0,3.0,55,0.00,,,0.00,Wunderground v.1.15,2013-06-13 16:50:00,
2013-06-13 12:51:00,88.8,70.5,29.69,SW,232,1.0,3.0,55,0.00,,,0.00,Wunderground v.1.15,2013-06-13 16:51:00,
2013-06-13 12:52:00,88.9,70.6,29.69,SSW,208,2.0,6.0,55,0.00,,,0.00,Wunderground v.1.15,2013-06-13 16:52:00,
2013-06-13 12:53:00,88.9,71.2,29.69,West,260,3.0,6.0,56,0.00,,,0.00,Wunderground v.1.15,2013-06-13 16:53:00,
2013-06-13 12:55:00,88.9,71.7,29.68,SSW,200,2.0,6.0,57,0.00,,,0.00,Wunderground v.1.15,2013-06-13 16:55:00,
2013-06-13 12:56:00,88.9,71.7,29.68,SSW,200,1.0,6.0,57,0.00,,,0.00,Wunderground v.1.15,2013-06-13 16:56:00,
2013-06-13 12:57:00,89.0,71.3,29.68,WSW,240,1.0,6.0,56,0.00,,,0.00,Wunderground v.1.15,2013-06-13 16:57:00,
2013-06-13 12:58:00,89.0,71.8,29.68,SSW,210,1.0,6.0,57,0.00,,,0.00,Wunderground v.1.15,2013-06-13 16:58:00,
2013-06-13 13:00:00,89.0,71.3,29.68,WSW,243,2.0,6.0,56,0.00,,,0.00,Wunderground v.1.15,2013-06-13 17:00:00,
2013-06-13 13:01:00,89.0,71.3,29.68,SW,225,2.0,6.0,56,0.00,,,0.00,Wunderground v.1.15,2013-06-13 17:01:00,
2013-06-13 13:02:00,89.0,71.3,29.68,SW,235,3.0,9.0,56,0.00,,,0.00,Wunderground v.1.15,2013-06-13 17:02:00,
2013-06-13 13:03:00,88.9,71.7,29.68,WSW,240,4.0,9.0,57,0.00,,,0.00,Wunderground v.1.15,2013-06-13 17:03:00,
2013-06-13 13:06:00,89.1,71.9,29.68,SW,216,5.0,9.0,57,0.00,,,0.00,Wunderground v.1.15,2013-06-13 17:06:00,
2013-06-13 13:07:00,89.1,71.4,29.68,WSW,253,4.0,9.0,56,0.00,,,0.00,Wunderground v.1.15,2013-06-13 17:07:00,
2013-06-13 13:08:00,89.0,70.7,29.67,West,264,5.0,11.0,55,0.00,,,0.00,Wunderground v.1.15,2013-06-13 17:08:00,
2013-06-13 13:11:00,88.8,71.1,29.67,SW,224,6.0,7.0,56,0.00,,,0.00,Wunderground v.1.15,2013-06-13 17:11:00,
2013-06-13 13:12:00,88.7,71.5,29.67,SW,232,3.0,7.0,57,0.00,,,0.00,Wunderground v.1.15,2013-06-13 17:12:00,
2013-06-13 13:13:00,88.8,72.6,29.67,SW,233,3.0,7.0,59,0.00,,,0.00,Wunderground v.1.15,2013-06-13 17:13:00,
2013-06-13 13:14:00,88.8,70.5,29.67,SW,217,4.0,10.0,55,0.00,,,0.00,Wunderground v.1.15,2013-06-13 17:14:00,
2013-06-13 13:16:00,88.8,71.6,29.67,WSW,253,2.0,10.0,57,0.00,,,0.00,Wunderground v.1.15,2013-06-13 17:16:00,
2013-06-13 13:17:00,88.9,73.2,29.67,SW,223,6.0,10.0,60,0.00,,,0.00,Wunderground v.1.15,2013-06-13 17:17:00,
2013-06-13 13:19:00,89.0,72.3,29.67,WSW,243,6.0,10.0,58,0.00,,,0.00,Wunderground v.1.15,2013-06-13 17:19:00,
2013-06-13 13:21:00,89.0,73.3,29.67,SW,224,2.0,5.0,60,0.00,,,0.00,Wunderground v.1.15,2013-06-13 17:21:00,
2013-06-13 13:23:00,89.2,73.5,29.67,SW,228,3.0,5.0,60,0.00,,,0.00,Wunderground v.1.15,2013-06-13 17:23:00,
2013-06-13 13:24:00,89.3,73.1,29.67,SW,229,5.0,5.0,59,0.00,,,0.00,Wunderground v.1.15,2013-06-13 17:24:00,
2013-06-13 13:25:00,89.4,72.2,29.66,SW,226,3.0,5.0,57,0.00,,,0.00,Wunderground v.1.15,2013-06-13 17:25:00,
2013-06-13 13:26:00,89.5,71.2,29.67,WSW,256,3.0,8.0,55,0.00,,,0.00,Wunderground v.1.15,2013-06-13 17:26:00,
2013-06-13 13:28:00,89.6,71.8,29.66,SSW,210,4.0,8.0,56,0.00,,,0.00,Wunderground v.1.15,2013-06-13 17:28:00,
2013-06-13 13:29:00,89.6,71.8,29.66,SW,222,7.0,9.0,56,0.00,,,0.00,Wunderground v.1.15,2013-06-13 17:29:00,
2013-06-13 13:30:00,89.6,72.3,29.66,West,265,2.0,3.0,57,0.00,,,0.00,Wunderground v.1.15,2013-06-13 17:30:00,
2013-06-13 13:31:00,89.6,70.2,29.66,SW,225,4.0,8.0,53,0.00,,,0.00,Wunderground v.1.15,2013-06-13 17:31:00,
2013-06-13 13:32:00,89.6,70.8,29.66,SW,233,5.0,8.0,54,0.00,,,0.00,Wunderground v.1.15,2013-06-13 17:32:00,
2013-06-13 13:33:00,89.6,72.3,29.66,West,271,1.0,8.0,57,0.00,,,0.00,Wunderground v.1.15,2013-06-13 17:33:00,
2013-06-13 13:34:00,89.7,72.4,29.66,SSW,194,2.0,8.0,57,0.00,,,0.00,Wunderground v.1.15,2013-06-13 17:34:00,
2013-06-13 13:35:00,89.8,73.0,29.66,SW,226,6.0,10.0,58,0.00,,,0.00,Wunderground v.1.15,2013-06-13 17:35:00,
2013-06-13 13:36:00,89.7,71.9,29.66,SSW,204,1.0,10.0,56,0.00,,,0.00,Wunderground v.1.15,2013-06-13 17:36:00,
2013-06-13 13:37:00,89.8,72.0,29.66,SSW,207,1.0,10.0,56,0.00,,,0.00,Wunderground v.1.15,2013-06-13 17:37:00,
2013-06-13 13:38:00,89.8,72.0,29.66,SSW,195,2.0,10.0,56,0.00,,,0.00,Wunderground v.1.15,2013-06-13 17:38:00,
2013-06-13 13:39:00,89.8,71.5,29.66,SSW,201,2.0,10.0,55,0.00,,,0.00,Wunderground v.1.15,2013-06-13 17:39:00,
2013-06-13 13:40:00,89.8,71.5,29.66,SSW,207,4.0,6.0,55,0.00,,,0.00,Wunderground v.1.15,2013-06-13 17:40:00,
2013-06-13 13:41:00,89.8,70.9,29.66,SW,215,4.0,6.0,54,0.00,,,0.00,Wunderground v.1.15,2013-06-13 17:41:00,
2013-06-13 13:42:00,89.8,72.0,29.66,SW,228,5.0,6.0,56,0.00,,,0.00,Wunderground v.1.15,2013-06-13 17:42:00,
2013-06-13 13:43:00,89.8,70.9,29.66,SW,226,4.0,6.0,54,0.00,,,0.00,Wunderground v.1.15,2013-06-13 17:43:00,
2013-06-13 13:44:00,89.8,71.5,29.66,SW,231,5.0,6.0,55,0.00,,,0.00,Wunderground v.1.15,2013-06-13 17:44:00,
2013-06-13 13:45:00,89.8,71.5,29.66,SSW,212,3.0,6.0,55,0.00,,,0.00,Wunderground v.1.15,2013-06-13 17:45:00,
2013-06-13 13:46:00,89.8,71.5,29.66,SW,235,3.0,6.0,55,0.00,,,0.00,Wunderground v.1.15,2013-06-13 17:46:00,
2013-06-13 13:47:00,89.8,71.5,29.66,West,264,4.0,7.0,55,0.00,,,0.00,Wunderground v.1.15,2013-06-13 17:47:00,
2013-06-13 13:49:00,89.8,70.4,29.66,WSW,246,5.0,8.0,53,0.00,,,0.00,Wunderground v.1.15,2013-06-13 17:49:00,
2013-06-13 13:50:00,89.9,70.5,29.66,SW,224,6.0,6.0,53,0.00,,,0.00,Wunderground v.1.15,2013-06-13 17:50:00,
2013-06-13 13:51:00,89.8,71.5,29.66,SW,232,6.0,12.0,55,0.00,,,0.00,Wunderground v.1.15,2013-06-13 17:51:00,
2013-06-13 13:53:00,89.8,70.4,29.66,West,263,3.0,12.0,53,0.00,,,0.00,Wunderground v.1.15,2013-06-13 17:53:00,
2013-06-13 13:54:00,89.8,69.8,29.66,WSW,249,3.0,12.0,52,0.00,,,0.00,Wunderground v.1.15,2013-06-13 17:54:00,
2013-06-13 13:55:00,89.8,70.4,29.66,West,266,2.0,12.0,53,0.00,,,0.00,Wunderground v.1.15,2013-06-13 17:55:00,
2013-06-13 13:56:00,89.8,70.4,29.66,SSW,210,2.0,12.0,53,0.00,,,0.00,Wunderground v.1.15,2013-06-13 17:56:00,
2013-06-13 13:57:00,89.8,70.9,29.65,SSW,207,1.0,12.0,54,0.00,,,0.00,Wunderground v.1.15,2013-06-13 17:57:00,
2013-06-13 13:58:00,89.8,71.5,29.65,SSW,210,1.0,12.0,55,0.00,,,0.00,Wunderground v.1.15,2013-06-13 17:58:00,
2013-06-13 14:00:00,90.0,71.1,29.65,SW,219,2.0,4.0,54,0.00,,,0.00,Wunderground v.1.15,2013-06-13 18:00:00,
2013-06-13 14:01:00,90.2,72.4,29.65,WSW,253,0.0,4.0,56,0.00,,,0.00,Wunderground v.1.15,2013-06-13 18:01:00,
2013-06-13 14:02:00,90.3,73.5,29.65,SW,222,1.0,4.0,58,0.00,,,0.00,Wunderground v.1.15,2013-06-13 18:02:00,
2013-06-13 14:03:00,90.4,72.6,29.65,WSW,249,2.0,4.0,56,0.00,,,0.00,Wunderground v.1.15,2013-06-13 18:03:00,
2013-06-13 14:05:00,90.6,72.2,29.65,WSW,252,1.0,4.0,55,0.00,,,0.00,Wunderground v.1.15,2013-06-13 18:05:00,
2013-06-13 14:06:00,90.7,73.4,29.65,SW,215,2.0,4.0,57,0.00,,,0.00,Wunderground v.1.15,2013-06-13 18:06:00,
2013-06-13 14:07:00,90.9,72.0,29.65,SW,228,4.0,6.0,54,0.00,,,0.00,Wunderground v.1.15,2013-06-13 18:07:00,
2013-06-13 14:08:00,91.0,73.7,29.65,WSW,238,3.0,6.0,57,0.00,,,0.00,Wunderground v.1.15,2013-06-13 18:08:00,
2013-06-13 14:10:00,91.1,71.6,29.65,SSW,205,2.0,4.0,53,0.00,,,0.00,Wunderground v.1.15,2013-06-13 18:10:00,
2013-06-13 14:11:00,91.0,70.9,29.65,WSW,250,5.0,6.0,52,0.00,,,0.00,Wunderground v.1.15,2013-06-13 18:11:00,
2013-06-13 14:12:00,91.1,71.0,29.65,SW,224,5.0,6.0,52,0.00,,,0.00,Wunderground v.1.15,2013-06-13 18:12:00,
2013-06-13 14:13:00,91.0,70.9,29.65,WSW,242,4.0,8.0,52,0.00,,,0.00,Wunderground v.1.15,2013-06-13 18:13:00,
2013-06-13 14:15:00,90.9,70.8,29.65,WSW,245,5.0,8.0,52,0.00,,,0.00,Wunderground v.1.15,2013-06-13 18:15:00,
2013-06-13 14:16:00,90.9,70.3,29.65,WNW,291,6.0,8.0,51,0.00,,,0.00,Wunderground v.1.15,2013-06-13 18:16:00,
2013-06-13 14:17:00,90.8,70.2,29.65,SSW,210,3.0,11.0,51,0.00,,,0.00,Wunderground v.1.15,2013-06-13 18:17:00,
2013-06-13 14:18:00,90.7,69.5,29.65,West,259,8.0,11.0,50,0.00,,,0.00,Wunderground v.1.15,2013-06-13 18:18:00,
2013-06-13 14:20:00,90.7,70.1,29.65,SW,225,3.0,4.0,51,0.00,,,0.00,Wunderground v.1.15,2013-06-13 18:20:00,
2013-06-13 14:21:00,90.6,70.0,29.65,SW,218,6.0,9.0,51,0.00,,,0.00,Wunderground v.1.15,2013-06-13 18:21:00,
2013-06-13 14:22:00,90.6,70.0,29.65,WSW,253,4.0,9.0,51,0.00,,,0.00,Wunderground v.1.15,2013-06-13 18:22:00,
2013-06-13 14:24:00,90.5,70.5,29.65,WSW,238,4.0,9.0,52,0.00,,,0.00,Wunderground v.1.15,2013-06-13 18:24:00,
2013-06-13 14:25:00,90.5,71.6,29.65,SW,217,6.0,9.0,54,0.00,,,0.00,Wunderground v.1.15,2013-06-13 18:25:00,
2013-06-13 14:27:00,90.5,71.0,29.65,SSW,193,2.0,9.0,53,0.00,,,0.00,Wunderground v.1.15,2013-06-13 18:27:00,
2013-06-13 14:30:00,90.5,71.0,29.64,WSW,253,3.0,4.0,53,0.00,,,0.00,Wunderground v.1.15,2013-06-13 18:30:00,
2013-06-13 14:31:00,90.6,72.8,29.64,West,278,2.0,6.0,56,0.00,,,0.00,Wunderground v.1.15,2013-06-13 18:31:00,
2013-06-13 14:32:00,90.6,73.3,29.64,WSW,247,13.0,13.0,57,0.00,,,0.00,Wunderground v.1.15,2013-06-13 18:32:00,
2013-06-13 14:35:00,90.5,71.6,29.64,SSW,201,2.0,13.0,54,0.00,,,0.00,Wunderground v.1.15,2013-06-13 18:35:00,
2013-06-13 14:36:00,90.5,71.6,29.64,SW,232,7.0,13.0,54,0.00,,,0.00,Wunderground v.1.15,2013-06-13 18:36:00,
2013-06-13 14:37:00,90.5,71.0,29.64,SW,229,4.0,13.0,53,0.00,,,0.00,Wunderground v.1.15,2013-06-13 18:37:00,
2013-06-13 14:38:00,90.5,72.1,29.64,SW,226,7.0,13.0,55,0.00,,,0.00,Wunderground v.1.15,2013-06-13 18:38:00,
2013-06-13 14:40:00,90.5,71.0,29.64,WSW,243,9.0,9.0,53,0.00,,,0.00,Wunderground v.1.15,2013-06-13 18:40:00,
2013-06-13 14:41:00,90.5,71.0,29.64,SSE,153,3.0,9.0,53,0.00,,,0.00,Wunderground v.1.15,2013-06-13 18:41:00,
2013-06-13 14:42:00,90.5,71.6,29.63,SW,224,2.0,9.0,54,0.00,,,0.00,Wunderground v.1.15,2013-06-13 18:42:00,
2013-06-13 14:43:00,90.6,71.7,29.64,SW,217,6.0,9.0,54,0.00,,,0.00,Wunderground v.1.15,2013-06-13 18:43:00,
2013-06-13 14:45:00,90.6,70.6,29.63,SSW,212,6.0,11.0,52,0.00,,,0.00,Wunderground v.1.15,2013-06-13 18:45:00,
2013-06-13 14:46:00,90.5,70.5,29.63,South,186,2.0,11.0,52,0.00,,,0.00,Wunderground v.1.15,2013-06-13 18:46:00,
2013-06-13 14:47:00,90.5,71.6,29.63,WSW,253,3.0,11.0,54,0.00,,,0.00,Wunderground v.1.15,2013-06-13 18:47:00,
2013-06-13 14:48:00,90.6,71.1,29.63,SW,232,5.0,11.0,53,0.00,,,0.00,Wunderground v.1.15,2013-06-13 18:48:00,
2013-06-13 14:50:00,90.6,70.6,29.63,WSW,243,6.0,8.0,52,0.00,,,0.00,Wunderground v.1.15,2013-06-13 18:50:00,
2013-06-13 14:51:00,90.6,70.6,29.63,SW,232,3.0,8.0,52,0.00,,,0.00,Wunderground v.1.15,2013-06-13 18:51:00,
2013-06-13 14:52:00,90.6,71.7,29.63,West,260,2.0,9.0,54,0.00,,,0.00,Wunderground v.1.15,2013-06-13 18:52:00,
2013-06-13 14:53:00,90.6,71.7,29.63,SW,226,2.0,9.0,54,0.00,,,0.00,Wunderground v.1.15,2013-06-13 18:53:00,
2013-06-13 14:55:00,90.8,72.4,29.64,SSE,167,1.0,9.0,55,0.00,,,0.00,Wunderground v.1.15,2013-06-13 18:55:00,
2013-06-13 14:56:00,90.9,72.5,29.64,SSW,192,2.0,9.0,55,0.00,,,0.00,Wunderground v.1.15,2013-06-13 18:56:00,
2013-06-13 14:57:00,91.0,72.0,29.64,SW,235,3.0,9.0,54,0.00,,,0.00,Wunderground v.1.15,2013-06-13 18:57:00,
2013-06-13 14:58:00,91.1,72.7,29.64,WSW,256,5.0,9.0,55,0.00,,,0.00,Wunderground v.1.15,2013-06-13 18:58:00,
2013-06-13 15:01:00,91.2,73.3,29.64,SSE,160,1.0,3.0,56,0.00,,,0.00,Wunderground v.1.15,2013-06-13 19:01:00,
2013-06-13 15:02:00,91.2,72.8,29.64,West,264,6.0,8.0,55,0.00,,,0.00,Wunderground v.1.15,2013-06-13 19:02:00,
2013-06-13 15:03:00,91.2,72.2,29.64,SW,219,6.0,8.0,54,0.00,,,0.00,Wunderground v.1.15,2013-06-13 19:03:00,
2013-06-13 15:06:00,90.9,72.0,29.64,SW,236,6.0,11.0,54,0.00,,,0.00,Wunderground v.1.15,2013-06-13 19:06:00,
2013-06-13 15:07:00,90.9,72.0,29.64,SSW,197,1.0,11.0,54,0.00,,,0.00,Wunderground v.1.15,2013-06-13 19:07:00,
2013-06-13 15:08:00,90.8,71.9,29.64,WSW,243,6.0,11.0,54,0.00,,,0.00,Wunderground v.1.15,2013-06-13 19:08:00,
2013-06-13 15:11:00,90.8,71.9,29.64,WNW,283,3.0,5.0,54,0.00,,,0.00,Wunderground v.1.15,2013-06-13 19:11:00,
2013-06-13 15:12:00,90.9,72.0,29.64,WSW,252,3.0,5.0,54,0.00,,,0.00,Wunderground v.1.15,2013-06-13 19:12:00,
2013-06-13 15:13:00,91.0,73.1,29.64,SSW,210,1.0,5.0,56,0.00,,,0.00,Wunderground v.1.15,2013-06-13 19:13:00,
2013-06-13 15:16:00,91.1,73.7,29.63,WSW,252,3.0,7.0,57,0.00,,,0.00,Wunderground v.1.15,2013-06-13 19:16:00,
2013-06-13 15:17:00,91.1,72.1,29.64,SW,225,4.0,7.0,54,0.00,,,0.00,Wunderground v.1.15,2013-06-13 19:17:00,
2013-06-13 15:18:00,91.0,71.5,29.64,WSW,249,10.0,11.0,53,0.00,,,0.00,Wunderground v.1.15,2013-06-13 19:18:00,
2013-06-13 15:19:00,91.0,70.4,29.64,WSW,241,7.0,11.0,51,0.00,,,0.00,Wunderground v.1.15,2013-06-13 19:19:00,
2013-06-13 15:21:00,90.8,70.2,29.64,SW,233,6.0,10.0,51,0.00,,,0.00,Wunderground v.1.15,2013-06-13 19:21:00,
2013-06-13 15:22:00,90.8,71.3,29.63,South,191,4.0,10.0,53,0.00,,,0.00,Wunderground v.1.15,2013-06-13 19:22:00,
2013-06-13 15:23:00,90.8,71.3,29.63,West,263,2.0,10.0,53,0.00,,,0.00,Wunderground v.1.15,2013-06-13 19:23:00,
2013-06-13 15:24:00,90.8,71.3,29.63,SSE,166,2.0,10.0,53,0.00,,,0.00,Wunderground v.1.15,2013-06-13 19:24:00,
2013-06-13 15:26:00,90.8,71.3,29.63,SSW,197,4.0,16.0,53,0.00,,,0.00,Wunderground v.1.15,2013-06-13 19:26:00,
2013-06-13 15:27:00,90.8,70.7,29.63,SSW,210,3.0,16.0,52,0.00,,,0.00,Wunderground v.1.15,2013-06-13 19:27:00,
2013-06-13 15:28:00,90.8,70.7,29.63,SW,228,9.0,16.0,52,0.00,,,0.00,Wunderground v.1.15,2013-06-13 19:28:00,
2013-06-13 15:29:00,90.8,69.6,29.62,WSW,243,4.0,16.0,50,0.00,,,0.00,Wunderground v.1.15,2013-06-13 19:29:00,
2013-06-13 15:31:00,90.7,70.7,29.62,WSW,248,3.0,8.0,52,0.00,,,0.00,Wunderground v.1.15,2013-06-13 19:31:00,
2013-06-13 15:32:00,90.7,70.1,29.62,SSW,211,3.0,8.0,51,0.00,,,0.00,Wunderground v.1.15,2013-06-13 19:32:00,
2013-06-13 15:34:00,90.8,70.7,29.62,ESE,120,1.0,8.0,52,0.00,,,0.00,Wunderground v.1.15,2013-06-13 19:34:00,
2013-06-13 15:35:00,90.9,72.5,29.62,SW,232,5.0,8.0,55,0.00,,,0.00,Wunderground v.1.15,2013-06-13 19:35:00,
2013-06-13 15:36:00,91.0,71.5,29.62,West,273,5.0,8.0,53,0.00,,,0.00,Wunderground v.1.15,2013-06-13 19:36:00,
2013-06-13 15:37:00,91.0,72.0,29.62,WSW,243,2.0,8.0,54,0.00,,,0.00,Wunderground v.1.15,2013-06-13 19:37:00,
2013-06-13 15:39:00,91.2,71.1,29.62,WSW,248,2.0,8.0,52,0.00,,,0.00,Wunderground v.1.15,2013-06-13 19:39:00,
2013-06-13 15:40:00,91.1,72.1,29.61,WSW,238,5.0,8.0,54,0.00,,,0.00,Wunderground v.1.15,2013-06-13 19:40:00,
2013-06-13 15:41:00,91.1,71.6,29.61,SSW,212,3.0,8.0,53,0.00,,,0.00,Wunderground v.1.15,2013-06-13 19:41:00,
2013-06-13 15:42:00,91.0,72.6,29.61,West,264,4.0,8.0,55,0.00,,,0.00,Wunderground v.1.15,2013-06-13 19:42:00,
2013-06-13 15:44:00,90.7,71.2,29.61,SW,215,9.0,12.0,53,0.00,,,0.00,Wunderground v.1.15,2013-06-13 19:44:00,
2013-06-13 15:45:00,90.7,71.2,29.61,WSW,249,5.0,12.0,53,0.00,,,0.00,Wunderground v.1.15,2013-06-13 19:45:00,
2013-06-13 15:47:00,90.5,71.0,29.61,West,265,3.0,12.0,53,0.00,,,0.00,Wunderground v.1.15,2013-06-13 19:47:00,
2013-06-13 15:49:00,90.6,71.7,29.61,West,259,3.0,12.0,54,0.00,,,0.00,Wunderground v.1.15,2013-06-13 19:49:00,
2013-06-13 15:50:00,90.6,71.7,29.61,SW,233,4.0,5.0,54,0.00,,,0.00,Wunderground v.1.15,2013-06-13 19:50:00,
2013-06-13 15:51:00,90.6,71.7,29.61,SW,218,4.0,5.0,54,0.00,,,0.00,Wunderground v.1.15,2013-06-13 19:51:00,
2013-06-13 15:52:00,90.7,71.8,29.61,SSW,200,2.0,7.0,54,0.00,,,0.00,Wunderground v.1.15,2013-06-13 19:52:00,
2013-06-13 15:54:00,90.7,71.8,29.61,SW,218,2.0,9.0,54,0.00,,,0.00,Wunderground v.1.15,2013-06-13 19:54:00,
2013-06-13 15:55:00,90.7,71.8,29.60,SSW,207,2.0,9.0,54,0.00,,,0.00,Wunderground v.1.15,2013-06-13 19:55:00,
2013-06-13 15:56:00,90.7,71.8,29.60,WSW,239,4.0,9.0,54,0.00,,,0.00,Wunderground v.1.15,2013-06-13 19:56:00,
2013-06-13 15:57:00,90.6,71.7,29.60,SSW,212,1.0,9.0,54,0.00,,,0.00,Wunderground v.1.15,2013-06-13 19:57:00,
2013-06-13 15:59:00,90.5,72.7,29.61,SSW,204,1.0,9.0,56,0.00,,,0.00,Wunderground v.1.15,2013-06-13 19:59:00,
2013-06-13 16:00:00,90.5,72.1,29.61,SW,235,6.0,6.0,55,0.00,,,0.00,Wunderground v.1.15,2013-06-13 20:00:00,
2013-06-13 16:01:00,90.4,70.9,29.61,West,259,3.0,8.0,53,0.00,,,0.00,Wunderground v.1.15,2013-06-13 20:01:00,
2013-06-13 16:02:00,90.2,71.8,29.62,WSW,250,5.0,10.0,55,0.00,,,0.00,Wunderground v.1.15,2013-06-13 20:02:00,
2013-06-13 16:03:00,90.2,71.8,29.62,SW,232,6.0,10.0,55,0.00,,,0.00,Wunderground v.1.15,2013-06-13 20:03:00,
2013-06-13 16:04:00,89.9,71.0,29.63,WNW,294,3.0,10.0,54,0.00,,,0.00,Wunderground v.1.15,2013-06-13 20:04:00,
2013-06-13 16:06:00,89.7,71.4,29.64,WSW,255,5.0,10.0,55,0.00,,,0.00,Wunderground v.1.15,2013-06-13 20:06:00,
2013-06-13 16:07:00,89.4,71.6,29.67,WNW,297,3.0,10.0,56,0.00,,,0.00,Wunderground v.1.15,2013-06-13 20:07:00,
2013-06-13 16:08:00,89.4,71.6,29.67,WNW,289,5.0,10.0,56,0.00,,,0.00,Wunderground v.1.15,2013-06-13 20:08:00,
2013-06-13 16:09:00,88.7,70.5,29.70,East,89,12.0,12.0,55,0.00,,,0.00,Wunderground v.1.15,2013-06-13 20:09:00,
2013-06-13 16:11:00,87.7,68.4,29.70,NW,305,13.0,13.0,53,0.00,,,0.00,Wunderground v.1.15,2013-06-13 20:11:00,
2013-06-13 16:12:00,87.6,68.4,29.70,WNW,293,5.0,-999.0,53,0.00,,,0.67,Wunderground v.1.15,2013-06-13 20:12:00,
2013-06-13 16:17:00,80.8,66.1,29.74,SW,225,11.0,-999.0,61,0.00,,,0.67,Wunderground v.1.15,2013-06-13 20:17:00,
2013-06-13 16:22:00,71.8,64.2,29.76,WSW,248,8.0,-999.0,77,0.12,,,0.67,Wunderground v.1.15,2013-06-13 20:22:00,
2013-06-13 16:27:00,67.8,63.5,29.70,WSW,248,4.0,-999.0,86,0.31,,,0.67,Wunderground v.1.15,2013-06-13 20:27:00,
2013-06-13 16:32:00,66.4,63.4,29.72,West,270,2.0,-999.0,90,0.49,,,0.67,Wunderground v.1.15,2013-06-13 20:32:00,
2013-06-13 16:37:00,65.7,63.6,29.71,SW,225,2.0,-999.0,93,0.59,,,0.67,Wunderground v.1.15,2013-06-13 20:37:00,
2013-06-13 16:42:00,65.3,63.5,29.68,SW,225,1.0,-999.0,94,0.66,,,0.67,Wunderground v.1.15,2013-06-13 20:42:00,
2013-06-13 16:47:00,65.5,64.3,29.67,SW,225,2.0,-999.0,96,0.66,,,0.67,Wunderground v.1.15,2013-06-13 20:47:00,
2013-06-13 16:52:00,65.7,64.5,29.65,SW,225,1.0,-999.0,96,0.66,,,0.67,Wunderground v.1.15,2013-06-13 20:52:00,
2013-06-13 16:57:00,66.0,64.8,29.64,SW,225,1.0,-999.0,96,0.67,,,0.67,Wunderground v.1.15,2013-06-13 20:57:00,
2013-06-13 17:02:00,66.2,65.0,29.63,SSE,158,1.0,-999.0,96,0.67,,,0.67,Wunderground v.1.15,2013-06-13 21:02:00,
2013-06-13 17:07:00,66.4,65.2,29.64,SSE,158,1.0,-999.0,96,0.67,,,0.67,Wunderground v.1.15,2013-06-13 21:07:00,
2013-06-13 17:12:00,66.5,65.3,29.63,West,270,0.0,-999.0,96,0.67,,,0.67,Wunderground v.1.15,2013-06-13 21:12:00,
2013-06-13 17:17:00,66.7,65.8,29.62,West,270,0.0,-999.0,97,0.67,,,0.67,Wunderground v.1.15,2013-06-13 21:17:00,
2013-06-13 17:22:00,66.7,65.8,29.65,SSW,203,2.0,-999.0,97,0.55,,,0.67,Wunderground v.1.15,2013-06-13 21:22:00,
2013-06-13 17:27:00,66.9,66.0,29.66,SW,225,2.0,-999.0,97,0.36,,,0.67,Wunderground v.1.15,2013-06-13 21:27:00,
2013-06-13 17:32:00,67.2,66.0,29.64,SW,225,2.0,-999.0,96,0.18,,,0.67,Wunderground v.1.15,2013-06-13 21:32:00,
2013-06-13 17:37:00,67.7,66.2,29.65,SW,225,4.0,-999.0,95,0.08,,,0.67,Wunderground v.1.15,2013-06-13 21:37:00,
2013-06-13 17:42:00,67.9,66.1,29.65,SW,225,3.0,-999.0,94,0.01,,,0.67,Wunderground v.1.15,2013-06-13 21:42:00,
2013-06-13 17:47:00,68.0,66.2,29.65,SW,225,2.0,-999.0,94,0.01,,,0.67,Wunderground v.1.15,2013-06-13 21:47:00,
2013-06-13 17:52:00,68.0,66.5,29.64,SW,225,1.0,-999.0,95,0.01,,,0.67,Wunderground v.1.15,2013-06-13 21:52:00,
2013-06-13 17:57:00,68.0,66.5,29.64,SW,225,2.0,-999.0,95,0.00,,,0.67,Wunderground v.1.15,2013-06-13 21:57:00,
2013-06-13 18:02:00,68.1,66.6,29.65,West,270,1.0,-999.0,95,0.00,,,0.67,Wunderground v.1.15,2013-06-13 22:02:00,
2013-06-13 18:07:00,68.1,66.6,29.65,SW,225,2.0,-999.0,95,0.00,,,0.67,Wunderground v.1.15,2013-06-13 22:07:00,
2013-06-13 18:12:00,68.2,66.7,29.66,SW,225,2.0,-999.0,95,0.00,,,0.67,Wunderground v.1.15,2013-06-13 22:12:00,
2013-06-13 18:17:00,68.2,66.7,29.66,N/A,-737280,0.0,-999.0,95,0.00,,,0.67,Wunderground v.1.15,2013-06-13 22:17:00,
2013-06-13 18:22:00,68.3,66.8,29.65,SW,225,1.0,-999.0,95,0.00,,,0.67,Wunderground v.1.15,2013-06-13 22:22:00,
2013-06-13 18:27:00,68.4,66.9,29.65,SW,225,1.0,-999.0,95,0.00,,,0.67,Wunderground v.1.15,2013-06-13 22:27:00,
2013-06-13 18:32:00,68.6,67.1,29.64,SW,225,1.0,-999.0,95,0.00,,,0.67,Wunderground v.1.15,2013-06-13 22:32:00,
2013-06-13 18:37:00,68.8,67.3,29.65,SW,225,1.0,-999.0,95,0.00,,,0.67,Wunderground v.1.15,2013-06-13 22:37:00,
2013-06-13 18:42:00,69.1,67.3,29.65,WSW,248,1.0,-999.0,94,0.00,,,0.67,Wunderground v.1.15,2013-06-13 22:42:00,
2013-06-13 18:47:00,69.5,67.4,29.65,SW,225,1.0,-999.0,93,0.00,,,0.67,Wunderground v.1.15,2013-06-13 22:47:00,
2013-06-13 18:52:00,69.8,67.7,29.66,WSW,248,1.0,-999.0,93,0.00,,,0.67,Wunderground v.1.15,2013-06-13 22:52:00,
2013-06-13 18:57:00,70.0,68.2,29.67,N/A,-737280,0.0,-999.0,94,0.00,,,0.67,Wunderground v.1.15,2013-06-13 22:57:00,
2013-06-13 19:02:00,70.3,68.5,29.67,N/A,-737280,0.0,-999.0,94,0.00,,,0.67,Wunderground v.1.15,2013-06-13 23:02:00,
2013-06-13 19:07:00,70.7,69.5,29.68,N/A,-737280,0.0,-999.0,96,0.00,,,0.67,Wunderground v.1.15,2013-06-13 23:07:00,
2013-06-13 19:12:00,70.7,69.2,29.68,N/A,-737280,0.0,-999.0,95,0.00,,,0.67,Wunderground v.1.15,2013-06-13 23:12:00,
2013-06-13 19:17:00,70.7,69.2,29.68,N/A,-737280,0.0,-999.0,95,0.00,,,0.67,Wunderground v.1.15,2013-06-13 23:17:00,
2013-06-13 19:22:00,70.6,69.1,29.68,N/A,-737280,0.0,-999.0,95,0.00,,,0.67,Wunderground v.1.15,2013-06-13 23:22:00,
2013-06-13 19:27:00,70.5,68.7,29.69,N/A,-737280,0.0,-999.0,94,0.00,,,0.67,Wunderground v.1.15,2013-06-13 23:27:00,
2013-06-13 19:32:00,70.5,68.7,29.69,N/A,-737280,0.0,-999.0,94,0.00,,,0.67,Wunderground v.1.15,2013-06-13 23:32:00,
2013-06-13 19:37:00,70.5,68.7,29.69,N/A,-737280,0.0,-999.0,94,0.00,,,0.67,Wunderground v.1.15,2013-06-13 23:37:00,
2013-06-13 19:42:00,70.6,69.1,29.69,N/A,-737280,0.0,-999.0,95,0.00,,,0.67,Wunderground v.1.15,2013-06-13 23:42:00,
2013-06-13 19:47:00,70.6,69.1,29.70,N/A,-737280,0.0,-999.0,95,0.00,,,0.67,Wunderground v.1.15,2013-06-13 23:47:00,
2013-06-13 19:52:00,70.5,68.7,29.70,N/A,-737280,0.0,-999.0,94,0.00,,,0.67,Wunderground v.1.15,2013-06-13 23:52:00,
2013-06-13 19:57:00,70.5,68.7,29.69,N/A,-737280,0.0,-999.0,94,0.00,,,0.67,Wunderground v.1.15,2013-06-13 23:57:00,
2013-06-13 20:02:00,70.5,68.7,29.69,N/A,-737280,0.0,-999.0,94,0.00,,,0.67,Wunderground v.1.15,2013-06-14 00:02:00,
2013-06-13 20:07:00,70.4,68.6,29.69,N/A,-737280,0.0,-999.0,94,0.00,,,0.67,Wunderground v.1.15,2013-06-14 00:07:00,
2013-06-13 20:12:00,70.4,68.6,29.69,SSW,203,0.0,-999.0,94,0.00,,,0.67,Wunderground v.1.15,2013-06-14 00:12:00,
2013-06-13 20:17:00,70.4,68.6,29.69,WSW,248,1.0,-999.0,94,0.00,,,0.67,Wunderground v.1.15,2013-06-14 00:17:00,
2013-06-13 20:22:00,70.4,68.3,29.68,SW,225,2.0,-999.0,93,0.00,,,0.67,Wunderground v.1.15,2013-06-14 00:22:00,
2013-06-13 20:27:00,70.4,68.3,29.68,SW,225,2.0,-999.0,93,0.00,,,0.67,Wunderground v.1.15,2013-06-14 00:27:00,
2013-06-13 20:32:00,70.4,68.3,29.68,SW,225,1.0,-999.0,93,0.00,,,0.67,Wunderground v.1.15,2013-06-14 00:32:00,
2013-06-13 20:37:00,70.3,68.2,29.68,SW,225,1.0,-999.0,93,0.00,,,0.67,Wunderground v.1.15,2013-06-14 00:37:00,
2013-06-13 20:42:00,70.3,68.8,29.68,N/A,-737280,0.0,-999.0,95,0.00,,,0.67,Wunderground v.1.15,2013-06-14 00:42:00,
2013-06-13 20:47:00,70.1,68.3,29.68,WSW,248,0.0,-999.0,94,0.00,,,0.67,Wunderground v.1.15,2013-06-14 00:47:00,
2013-06-13 20:52:00,69.9,67.8,29.68,SW,225,1.0,-999.0,93,0.00,,,0.67,Wunderground v.1.15,2013-06-14 00:52:00,
2013-06-13 20:57:00,69.8,68.0,29.68,SW,225,0.0,-999.0,94,0.00,,,0.67,Wunderground v.1.15,2013-06-14 00:57:00,
2013-06-13 21:02:00,69.7,67.9,29.68,SW,225,0.0,-999.0,94,0.00,,,0.67,Wunderground v.1.15,2013-06-14 01:02:00,
2013-06-13 21:07:00,69.5,67.7,29.68,N/A,-737280,0.0,-999.0,94,0.00,,,0.67,Wunderground v.1.15,2013-06-14 01:07:00,
2013-06-13 21:12:00,69.4,67.6,29.68,N/A,-737280,0.0,-999.0,94,0.00,,,0.67,Wunderground v.1.15,2013-06-14 01:12:00,
2013-06-13 21:17:00,69.4,67.6,29.69,SW,225,1.0,-999.0,94,0.00,,,0.67,Wunderground v.1.15,2013-06-14 01:17:00,
2013-06-13 21:22:00,69.3,67.5,29.69,SW,225,1.0,-999.0,94,0.00,,,0.67,Wunderground v.1.15,2013-06-14 01:22:00,
2013-06-13 21:27:00,69.3,67.2,29.69,WSW,248,1.0,-999.0,93,0.00,,,0.67,Wunderground v.1.15,2013-06-14 01:27:00,
2013-06-13 21:32:00,69.4,67.3,29.69,SW,225,1.0,-999.0,93,0.00,,,0.67,Wunderground v.1.15,2013-06-14 01:32:00,
2013-06-13 21:37:00,69.5,67.4,29.69,SW,225,1.0,-999.0,93,0.00,,,0.67,Wunderground v.1.15,2013-06-14 01:37:00,
2013-06-13 21:42:00,69.5,67.1,29.69,WSW,248,1.0,-999.0,92,0.00,,,0.67,Wunderground v.1.15,2013-06-14 01:42:00,
2013-06-13 21:47:00,69.4,67.3,29.69,SW,225,1.0,-999.0,93,0.00,,,0.67,Wunderground v.1.15,2013-06-14 01:47:00,
2013-06-13 21:52:00,69.3,67.2,29.69,West,270,1.0,-999.0,93,0.00,,,0.67,Wunderground v.1.15,2013-06-14 01:52:00,
2013-06-13 21:57:00,69.2,67.1,29.70,SW,225,1.0,-999.0,93,0.00,,,0.67,Wunderground v.1.15,2013-06-14 01:57:00,
2013-06-13 22:02:00,69.0,66.9,29.70,N/A,-737280,0.0,-999.0,93,0.00,,,0.67,Wunderground v.1.15,2013-06-14 02:02:00,
2013-06-13 22:07:00,68.9,67.1,29.70,N/A,-737280,0.0,-999.0,94,0.00,,,0.67,Wunderground v.1.15,2013-06-14 02:07:00,
2013-06-13 22:12:00,68.7,66.9,29.70,N/A,-737280,0.0,-999.0,94,0.00,,,0.67,Wunderground v.1.15,2013-06-14 02:12:00,
2013-06-13 22:17:00,68.5,66.7,29.70,N/A,-737280,0.0,-999.0,94,0.00,,,0.67,Wunderground v.1.15,2013-06-14 02:17:00,
2013-06-13 22:22:00,68.4,66.9,29.71,N/A,-737280,0.0,-999.0,95,0.00,,,0.67,Wunderground v.1.15,2013-06-14 02:22:00,
2013-06-13 22:27:00,68.3,66.8,29.71,N/A,-737280,0.0,-999.0,95,0.00,,,0.67,Wunderground v.1.15,2013-06-14 02:27:00,
2013-06-13 22:32:00,68.1,66.6,29.71,N/A,-737280,0.0,-999.0,95,0.00,,,0.67,Wunderground v.1.15,2013-06-14 02:32:00,
2013-06-13 22:37:00,68.0,66.8,29.71,N/A,-737280,0.0,-999.0,96,0.00,,,0.67,Wunderground v.1.15,2013-06-14 02:37:00,
2013-06-13 22:42:00,67.8,66.6,29.71,N/A,-737280,0.0,-999.0,96,0.00,,,0.67,Wunderground v.1.15,2013-06-14 02:42:00,
2013-06-13 22:47:00,67.7,66.5,29.71,N/A,-737280,0.0,-999.0,96,0.00,,,0.67,Wunderground v.1.15,2013-06-14 02:47:00,
2013-06-13 22:52:00,67.5,66.3,29.71,N/A,-737280,0.0,-999.0,96,0.00,,,0.67,Wunderground v.1.15,2013-06-14 02:52:00,
2013-06-13 22:57:00,67.5,66.6,29.71,N/A,-737280,0.0,-999.0,97,0.00,,,0.67,Wunderground v.1.15,2013-06-14 02:57:00,
2013-06-13 23:02:00,67.6,66.7,29.72,N/A,-737280,0.0,-999.0,97,0.00,,,0.67,Wunderground v.1.15,2013-06-14 03:02:00,
2013-06-13 23:07:00,67.4,66.2,29.72,N/A,-737280,0.0,-999.0,96,0.00,,,0.67,Wunderground v.1.15,2013-06-14 03:07:00,
2013-06-13 23:12:00,67.1,65.9,29.72,N/A,-737280,0.0,-999.0,96,0.00,,,0.67,Wunderground v.1.15,2013-06-14 03:12:00,
2013-06-13 23:17:00,66.9,66.0,29.72,N/A,-737280,0.0,-999.0,97,0.00,,,0.67,Wunderground v.1.15,2013-06-14 03:17:00,
2013-06-13 23:22:00,66.7,65.8,29.72,N/A,-737280,0.0,-999.0,97,0.00,,,0.67,Wunderground v.1.15,2013-06-14 03:22:00,
2013-06-13 23:27:00,66.5,65.6,29.72,N/A,-737280,0.0,-999.0,97,0.00,,,0.67,Wunderground v.1.15,2013-06-14 03:27:00,
2013-06-13 23:32:00,66.5,65.6,29.72,N/A,-737280,0.0,-999.0,97,0.00,,,0.67,Wunderground v.1.15,2013-06-14 03:32:00,
2013-06-13 23:37:00,66.4,65.8,29.72,N/A,-737280,0.0,-999.0,98,0.00,,,0.67,Wunderground v.1.15,2013-06-14 03:37:00,
2013-06-13 23:42:00,66.4,65.8,29.73,N/A,-737280,0.0,-999.0,98,0.00,,,0.67,Wunderground v.1.15,2013-06-14 03:42:00,
2013-06-13 23:47:00,66.3,65.7,29.74,N/A,-737280,0.0,-999.0,98,0.00,,,0.67,Wunderground v.1.15,2013-06-14 03:47:00,
2013-06-13 23:52:00,66.2,65.6,29.75,N/A,-737280,0.0,-999.0,98,0.00,,,0.67,Wunderground v.1.15,2013-06-14 03:52:00,
2013-06-13 23:57:00,66.2,65.6,29.75,N/A,-737280,0.0,-999.0,98,0.00,,,0.67,Wunderground v.1.15,2013-06-14 03:57:00,